Time,TemperatureF,DewpointF,PressureIn,WindDirection,WindDirectionDegrees,WindSpeedMPH,WindSpeedGustMPH,Humidity,HourlyPrecipIn,Conditions,Clouds,dailyrainin,SoftwareType,DateUTC
2013-01-31 00:00:00,71.4,64.9,30.13,South,180,2.4,4.4,80,0.00,,,0.00,WUHU216HW,2013-01-31 05:00:00,
2013-01-31 00:01:00,71.4,64.9,30.13,SSW,203,0.0,4.4,80,0.00,,,0.00,WUHU216HW,2013-01-31 05:01:00,
2013-01-31 00:02:00,71.4,64.9,30.13,SSW,203,0.0,2.4,80,0.00,,,0.00,WUHU216HW,2013-01-31 05:02:00,
2013-01-31 00:05:00,71.4,64.9,30.13,SSW,203,4.0,4.0,80,0.00,,,0.00,WUHU216HW,2013-01-31 05:05:00,
2013-01-31 00:06:00,71.4,64.9,30.13,SSW,203,4.0,4.0,80,0.00,,,0.00,WUHU216HW,2013-01-31 05:06:00,
2013-01-31 00:07:00,71.4,64.9,30.13,SSE,158,3.3,4.0,80,0.00,,,0.00,WUHU216HW,2013-01-31 05:07:00,
2013-01-31 00:11:00,71.4,64.9,30.13,SE,135,4.0,4.0,80,0.00,,,0.00,WUHU216HW,2013-01-31 05:11:00,
2013-01-31 00:12:00,71.4,64.9,30.13,South,180,0.0,4.0,80,0.00,,,0.00,WUHU216HW,2013-01-31 05:12:00,
2013-01-31 00:16:00,71.4,64.9,30.12,SSE,168,4.1,6.2,80,0.00,,,0.00,WUHU216HW,2013-01-31 05:16:00,
2013-01-31 00:17:00,71.4,64.9,30.12,SSE,168,4.1,6.2,80,0.00,,,0.00,WUHU216HW,2013-01-31 05:17:00,
2013-01-31 00:18:00,71.4,64.9,30.12,SSW,203,2.0,6.2,80,0.00,,,0.00,WUHU216HW,2013-01-31 05:18:00,
2013-01-31 00:22:00,71.4,65.2,30.12,SW,214,3.4,6.2,81,0.00,,,0.00,WUHU216HW,2013-01-31 05:22:00,
2013-01-31 00:23:00,71.4,65.2,30.12,South,180,0.0,6.2,81,0.00,,,0.00,WUHU216HW,2013-01-31 05:23:00,
2013-01-31 00:24:00,71.4,65.2,30.12,South,180,0.0,6.2,81,0.00,,,0.00,WUHU216HW,2013-01-31 05:24:00,
2013-01-31 00:27:00,71.2,65.1,30.12,SW,225,2.0,3.5,81,0.00,,,0.00,WUHU216HW,2013-01-31 05:27:00,
2013-01-31 00:28:00,71.2,65.1,30.12,SW,225,2.0,3.5,81,0.00,,,0.00,WUHU216HW,2013-01-31 05:28:00,
2013-01-31 00:29:00,71.4,65.2,30.12,South,180,3.8,3.8,81,0.00,,,0.00,WUHU216HW,2013-01-31 05:29:00,
2013-01-31 00:33:00,71.4,65.2,30.12,SW,225,3.3,3.8,81,0.00,,,0.00,WUHU216HW,2013-01-31 05:33:00,
2013-01-31 00:36:00,71.4,65.2,30.12,South,180,0.0,4.2,81,0.00,,,0.00,WUHU216HW,2013-01-31 05:36:00,
2013-01-31 00:38:00,71.2,65.1,30.12,SSW,203,0.0,6.9,81,0.00,,,0.00,WUHU216HW,2013-01-31 05:38:00,
2013-01-31 00:39:00,71.2,65.1,30.12,SSW,203,0.0,6.9,81,0.00,,,0.00,WUHU216HW,2013-01-31 05:39:00,
2013-01-31 00:41:00,71.2,65.1,30.12,South,180,2.9,6.9,81,0.00,,,0.00,WUHU216HW,2013-01-31 05:41:00,
2013-01-31 00:44:00,71.2,65.1,30.12,South,180,4.4,6.9,81,0.00,,,0.00,WUHU216HW,2013-01-31 05:44:00,
2013-01-31 00:45:00,71.2,65.1,30.12,South,180,4.4,6.9,81,0.00,,,0.00,WUHU216HW,2013-01-31 05:45:00,
2013-01-31 00:47:00,71.2,65.1,30.12,SSW,203,0.0,4.4,81,0.00,,,0.00,WUHU216HW,2013-01-31 05:47:00,
2013-01-31 00:49:00,71.2,65.1,30.12,South,180,0.2,4.4,81,0.00,,,0.00,WUHU216HW,2013-01-31 05:49:00,
2013-01-31 00:50:00,71.2,65.1,30.12,South,180,0.2,4.4,81,0.00,,,0.00,WUHU216HW,2013-01-31 05:50:00,
2013-01-31 00:51:00,71.2,65.1,30.12,South,180,0.2,4.4,81,0.00,,,0.00,WUHU216HW,2013-01-31 05:51:00,
2013-01-31 00:52:00,71.2,65.1,30.12,SSW,203,0.0,4.4,81,0.00,,,0.00,WUHU216HW,2013-01-31 05:52:00,
2013-01-31 00:54:00,71.2,65.1,30.12,SSW,203,2.2,2.2,81,0.00,,,0.00,WUHU216HW,2013-01-31 05:54:00,
2013-01-31 00:55:00,71.2,65.1,30.12,SSW,203,2.2,2.2,81,0.00,,,0.00,WUHU216HW,2013-01-31 05:55:00,
2013-01-31 00:56:00,71.2,65.1,30.12,SSW,211,1.8,2.2,81,0.00,,,0.00,WUHU216HW,2013-01-31 05:56:00,
2013-01-31 01:00:00,71.2,65.1,30.12,SW,225,0.0,2.2,81,0.00,,,0.00,WUHU216HW,2013-01-31 06:00:00,
2013-01-31 01:01:00,71.2,65.1,30.12,SW,225,2.0,2.2,81,0.00,,,0.00,WUHU216HW,2013-01-31 06:01:00,
2013-01-31 01:03:00,71.2,65.1,30.12,SW,225,2.0,2.2,81,0.00,,,0.00,WUHU216HW,2013-01-31 06:03:00,
2013-01-31 01:05:00,71.2,65.1,30.12,SW,225,2.4,2.4,81,0.00,,,0.00,WUHU216HW,2013-01-31 06:05:00,
2013-01-31 01:06:00,71.2,65.1,30.12,South,180,0.0,2.4,81,0.00,,,0.00,WUHU216HW,2013-01-31 06:06:00,
2013-01-31 01:07:00,71.2,65.1,30.12,WSW,248,7.6,7.6,81,0.00,,,0.00,WUHU216HW,2013-01-31 06:07:00,
2013-01-31 01:08:00,71.2,65.1,30.12,WSW,248,7.6,7.6,81,0.00,,,0.00,WUHU216HW,2013-01-31 06:08:00,
2013-01-31 01:10:00,71.2,65.1,30.12,WSW,248,0.0,7.6,81,0.00,,,0.00,WUHU216HW,2013-01-31 06:10:00,
2013-01-31 01:11:00,71.2,65.4,30.12,SSW,203,6.0,7.6,82,0.00,,,0.00,WUHU216HW,2013-01-31 06:11:00,
2013-01-31 01:13:00,71.2,65.4,30.12,WSW,248,2.2,7.6,82,0.00,,,0.00,WUHU216HW,2013-01-31 06:13:00,
2013-01-31 01:15:00,71.2,65.4,30.12,SSE,158,4.2,7.6,82,0.00,,,0.00,WUHU216HW,2013-01-31 06:15:00,
2013-01-31 01:17:00,71.2,65.4,30.12,SSE,158,4.2,7.6,82,0.00,,,0.00,WUHU216HW,2013-01-31 06:17:00,
2013-01-31 01:18:00,71.2,65.4,30.12,South,180,6.4,6.4,82,0.00,,,0.00,WUHU216HW,2013-01-31 06:18:00,
2013-01-31 01:19:00,71.2,65.4,30.11,South,191,4.3,6.4,82,0.00,,,0.00,WUHU216HW,2013-01-31 06:19:00,
2013-01-31 01:21:00,71.2,65.4,30.11,South,180,1.1,6.4,82,0.00,,,0.00,WUHU216HW,2013-01-31 06:21:00,
2013-01-31 01:22:00,71.2,65.4,30.11,South,180,1.1,6.4,82,0.00,,,0.00,WUHU216HW,2013-01-31 06:22:00,
2013-01-31 01:23:00,71.2,65.4,30.11,SW,225,0.0,6.4,82,0.00,,,0.00,WUHU216HW,2013-01-31 06:23:00,
2013-01-31 01:24:00,71.2,65.4,30.11,SW,225,0.0,6.4,82,0.00,,,0.00,WUHU216HW,2013-01-31 06:24:00,
2013-01-31 01:26:00,71.2,65.4,30.12,SE,135,2.0,6.4,82,0.00,,,0.00,WUHU216HW,2013-01-31 06:26:00,
2013-01-31 01:27:00,71.2,65.4,30.12,SE,135,2.0,6.4,82,0.00,,,0.00,WUHU216HW,2013-01-31 06:27:00,
2013-01-31 01:29:00,71.2,65.4,30.12,South,180,0.0,5.3,82,0.00,,,0.00,WUHU216HW,2013-01-31 06:29:00,
2013-01-31 01:30:00,71.2,65.4,30.12,SSW,203,1.3,2.0,82,0.00,,,0.00,WUHU216HW,2013-01-31 06:30:00,
2013-01-31 01:32:00,71.2,65.6,30.12,SSE,158,0.0,2.0,82,0.00,,,0.00,WUHU216HW,2013-01-31 06:32:00,
2013-01-31 01:33:00,71.2,65.6,30.12,SSE,158,0.0,2.0,82,0.00,,,0.00,WUHU216HW,2013-01-31 06:33:00,
2013-01-31 01:34:00,71.4,65.6,30.12,South,180,4.9,4.9,82,0.00,,,0.00,WUHU216HW,2013-01-31 06:34:00,
2013-01-31 01:37:00,71.4,65.6,30.12,SW,225,0.0,4.9,82,0.00,,,0.00,WUHU216HW,2013-01-31 06:37:00,
2013-01-31 01:38:00,71.4,65.6,30.12,WSW,248,0.0,4.9,82,0.00,,,0.00,WUHU216HW,2013-01-31 06:38:00,
2013-01-31 01:39:00,71.4,65.6,30.12,SSW,203,0.0,4.9,82,0.00,,,0.00,WUHU216HW,2013-01-31 06:39:00,
2013-01-31 01:42:00,71.4,65.6,30.12,WSW,248,2.0,4.9,82,0.00,,,0.00,WUHU216HW,2013-01-31 06:42:00,
2013-01-31 01:43:00,71.4,65.6,30.12,WSW,248,2.0,4.9,82,0.00,,,0.00,WUHU216HW,2013-01-31 06:43:00,
2013-01-31 01:44:00,71.4,65.6,30.12,West,270,6.9,6.9,82,0.00,,,0.00,WUHU216HW,2013-01-31 06:44:00,
2013-01-31 01:47:00,71.4,65.9,30.12,SSW,203,1.5,6.9,83,0.00,,,0.00,WUHU216HW,2013-01-31 06:47:00,
2013-01-31 01:48:00,71.4,65.9,30.12,SSE,158,0.6,6.9,83,0.00,,,0.00,WUHU216HW,2013-01-31 06:48:00,
2013-01-31 01:49:00,71.4,65.9,30.12,South,180,3.1,6.9,83,0.00,,,0.00,WUHU216HW,2013-01-31 06:49:00,
2013-01-31 01:50:00,71.4,65.9,30.12,South,180,3.1,6.9,83,0.00,,,0.00,WUHU216HW,2013-01-31 06:50:00,
2013-01-31 01:53:00,71.4,65.9,30.11,South,180,3.1,6.9,83,0.00,,,0.00,WUHU216HW,2013-01-31 06:53:00,
2013-01-31 01:54:00,71.4,65.9,30.11,South,180,3.1,3.1,83,0.00,,,0.00,WUHU216HW,2013-01-31 06:54:00,
2013-01-31 01:55:00,71.4,65.9,30.11,SSW,203,0.0,3.1,83,0.00,,,0.00,WUHU216HW,2013-01-31 06:55:00,
2013-01-31 01:58:00,71.4,65.9,30.11,SSW,203,6.7,6.7,83,0.00,,,0.00,WUHU216HW,2013-01-31 06:58:00,
2013-01-31 02:00:00,71.4,65.9,30.11,South,180,5.5,6.7,83,0.00,,,0.00,WUHU216HW,2013-01-31 07:00:00,
2013-01-31 02:01:00,71.4,65.9,30.11,SW,225,5.8,6.7,83,0.00,,,0.00,WUHU216HW,2013-01-31 07:01:00,
2013-01-31 02:10:00,71.4,65.9,30.11,SSW,203,7.1,7.1,83,0.00,,,0.00,WUHU216HW,2013-01-31 07:10:00,
2013-01-31 02:11:00,71.7,66.3,30.11,SSW,203,7.1,7.1,83,0.00,,,0.00,WUHU216HW,2013-01-31 07:11:00,
2013-01-31 02:15:00,71.7,66.3,30.11,SSE,158,3.5,7.1,83,0.00,,,0.00,WUHU216HW,2013-01-31 07:15:00,
2013-01-31 02:16:00,71.7,66.3,30.11,SSE,158,3.5,7.1,83,0.00,,,0.00,WUHU216HW,2013-01-31 07:16:00,
2013-01-31 02:21:00,71.7,66.3,30.11,SW,225,4.2,4.2,83,0.00,,,0.00,WUHU216HW,2013-01-31 07:21:00,
2013-01-31 02:22:00,71.7,66.3,30.11,WSW,248,2.2,4.2,83,0.00,,,0.00,WUHU216HW,2013-01-31 07:22:00,
2013-01-31 02:26:00,71.7,66.3,30.11,WSW,248,1.5,5.1,83,0.00,,,0.00,WUHU216HW,2013-01-31 07:26:00,
2013-01-31 02:27:00,71.7,66.3,30.10,SSW,203,0.0,5.1,83,0.00,,,0.00,WUHU216HW,2013-01-31 07:27:00,
2013-01-31 02:31:00,71.7,66.3,30.11,SSW,203,2.9,5.3,83,0.00,,,0.00,WUHU216HW,2013-01-31 07:31:00,
2013-01-31 02:32:00,71.9,66.5,30.10,SSW,203,2.9,5.3,83,0.00,,,0.00,WUHU216HW,2013-01-31 07:32:00,
2013-01-31 02:33:00,71.9,66.5,30.10,SSW,203,2.9,5.3,83,0.00,,,0.00,WUHU216HW,2013-01-31 07:33:00,
2013-01-31 02:36:00,71.9,66.5,30.11,WSW,248,2.0,5.3,83,0.00,,,0.00,WUHU216HW,2013-01-31 07:36:00,
2013-01-31 02:37:00,71.9,66.5,30.11,WSW,248,2.0,5.3,83,0.00,,,0.00,WUHU216HW,2013-01-31 07:37:00,
2013-01-31 02:39:00,71.9,66.5,30.11,WSW,248,0.0,5.3,83,0.00,,,0.00,WUHU216HW,2013-01-31 07:39:00,
2013-01-31 02:42:00,71.9,66.5,30.11,WSW,248,0.0,2.0,83,0.00,,,0.00,WUHU216HW,2013-01-31 07:42:00,
2013-01-31 02:44:00,71.9,66.5,30.11,SSW,203,0.0,2.0,83,0.00,,,0.00,WUHU216HW,2013-01-31 07:44:00,
2013-01-31 02:48:00,71.9,66.5,30.11,SW,225,3.5,3.5,83,0.00,,,0.00,WUHU216HW,2013-01-31 07:48:00,
2013-01-31 02:49:00,71.9,66.5,30.11,South,180,2.4,3.5,83,0.00,,,0.00,WUHU216HW,2013-01-31 07:49:00,
2013-01-31 02:50:00,71.9,66.5,30.11,South,180,2.4,3.5,83,0.00,,,0.00,WUHU216HW,2013-01-31 07:50:00,
2013-01-31 02:53:00,72.1,66.5,30.11,SW,225,3.1,3.5,83,0.00,,,0.00,WUHU216HW,2013-01-31 07:53:00,
2013-01-31 02:54:00,72.1,66.6,30.10,SSW,203,3.8,3.8,83,0.00,,,0.00,WUHU216HW,2013-01-31 07:54:00,
2013-01-31 02:55:00,72.1,66.6,30.10,SSW,203,3.8,3.8,83,0.00,,,0.00,WUHU216HW,2013-01-31 07:55:00,
2013-01-31 02:58:00,72.1,66.6,30.10,South,180,4.6,11.8,83,0.00,,,0.00,WUHU216HW,2013-01-31 07:58:00,
2013-01-31 02:59:00,72.1,66.6,30.10,SW,225,1.3,11.8,83,0.00,,,0.00,WUHU216HW,2013-01-31 07:59:00,
2013-01-31 03:01:00,72.1,66.6,30.10,SW,225,1.3,11.8,83,0.00,,,0.00,WUHU216HW,2013-01-31 08:01:00,
2013-01-31 03:04:00,72.1,66.6,30.10,SSE,158,0.0,11.8,83,0.00,,,0.00,WUHU216HW,2013-01-31 08:04:00,
2013-01-31 03:05:00,72.1,66.6,30.10,SSE,158,0.0,11.8,83,0.00,,,0.00,WUHU216HW,2013-01-31 08:05:00,
2013-01-31 03:06:00,72.1,66.6,30.10,SE,135,2.4,4.6,83,0.00,,,0.00,WUHU216HW,2013-01-31 08:06:00,
2013-01-31 03:09:00,72.1,66.6,30.10,SW,225,0.0,2.4,83,0.00,,,0.00,WUHU216HW,2013-01-31 08:09:00,
2013-01-31 03:10:00,72.1,66.6,30.10,SW,225,0.0,2.4,83,0.00,,,0.00,WUHU216HW,2013-01-31 08:10:00,
2013-01-31 03:11:00,72.1,66.6,30.10,SSE,158,0.0,2.4,83,0.00,,,0.00,WUHU216HW,2013-01-31 08:11:00,
2013-01-31 03:15:00,71.9,66.5,30.10,SSW,203,2.4,3.3,83,0.00,,,0.00,WUHU216HW,2013-01-31 08:15:00,
2013-01-31 03:16:00,71.9,66.5,30.10,SSW,203,2.4,3.3,83,0.00,,,0.00,WUHU216HW,2013-01-31 08:16:00,
2013-01-31 03:17:00,71.9,66.5,30.10,SSW,203,2.4,3.3,83,0.00,,,0.00,WUHU216HW,2013-01-31 08:17:00,
2013-01-31 03:21:00,71.9,66.5,30.10,WSW,248,0.0,3.3,83,0.00,,,0.00,WUHU216HW,2013-01-31 08:21:00,
2013-01-31 03:22:00,71.9,66.5,30.10,WSW,248,2.4,3.3,83,0.00,,,0.00,WUHU216HW,2013-01-31 08:22:00,
2013-01-31 03:26:00,71.9,66.5,30.10,South,180,5.8,5.8,83,0.00,,,0.00,WUHU216HW,2013-01-31 08:26:00,
2013-01-31 03:27:00,71.9,66.5,30.09,SSE,158,0.0,5.8,83,0.00,,,0.00,WUHU216HW,2013-01-31 08:27:00,
2013-01-31 03:28:00,71.9,66.5,30.09,South,180,1.7,5.8,83,0.00,,,0.00,WUHU216HW,2013-01-31 08:28:00,
2013-01-31 03:32:00,71.9,66.5,30.10,SE,135,8.0,8.0,83,0.00,,,0.00,WUHU216HW,2013-01-31 08:32:00,
2013-01-31 03:33:00,71.9,66.5,30.10,SSW,203,0.0,8.0,83,0.00,,,0.00,WUHU216HW,2013-01-31 08:33:00,
2013-01-31 03:37:00,71.9,66.5,30.09,SSE,158,0.0,8.0,83,0.00,,,0.00,WUHU216HW,2013-01-31 08:37:00,
2013-01-31 03:38:00,71.9,66.5,30.09,SSE,158,0.0,8.0,83,0.00,,,0.00,WUHU216HW,2013-01-31 08:38:00,
2013-01-31 03:43:00,72.1,66.6,30.10,NW,315,0.0,4.6,83,0.00,,,0.00,WUHU216HW,2013-01-31 08:43:00,
2013-01-31 03:44:00,72.1,66.6,30.10,South,180,0.0,4.6,83,0.00,,,0.00,WUHU216HW,2013-01-31 08:44:00,
2013-01-31 03:48:00,72.1,66.6,30.10,SW,225,0.6,1.1,83,0.00,,,0.00,WUHU216HW,2013-01-31 08:48:00,
2013-01-31 03:49:00,72.1,66.6,30.10,SE,135,3.5,3.5,83,0.00,,,0.00,WUHU216HW,2013-01-31 08:49:00,
2013-01-31 03:50:00,72.1,66.6,30.10,SE,135,3.5,3.5,83,0.00,,,0.00,WUHU216HW,2013-01-31 08:50:00,
2013-01-31 03:54:00,72.1,66.6,30.10,SW,225,0.0,3.5,83,0.00,,,0.00,WUHU216HW,2013-01-31 08:54:00,
2013-01-31 03:55:00,72.1,66.6,30.10,SW,225,0.0,3.5,83,0.00,,,0.00,WUHU216HW,2013-01-31 08:55:00,
2013-01-31 03:59:00,72.1,66.6,30.10,WSW,248,0.0,3.1,83,0.00,,,0.00,WUHU216HW,2013-01-31 08:59:00,
2013-01-31 04:00:00,72.1,66.6,30.10,WSW,248,0.0,3.1,83,0.00,,,0.00,WUHU216HW,2013-01-31 09:00:00,
2013-01-31 04:05:00,72.3,66.8,30.12,West,281,4.1,6.4,83,0.00,,,0.00,WUHU216HW,2013-01-31 09:05:00,
2013-01-31 04:06:00,72.3,66.8,30.12,WNW,293,3.3,6.4,83,0.00,,,0.00,WUHU216HW,2013-01-31 09:06:00,
2013-01-31 04:10:00,72.1,66.3,30.14,NNW,342,8.0,9.6,82,0.00,,,0.00,WUHU216HW,2013-01-31 09:10:00,
2013-01-31 04:11:00,72.1,66.3,30.14,NNW,342,8.0,9.6,82,0.00,,,0.00,WUHU216HW,2013-01-31 09:11:00,
2013-01-31 04:12:00,72.1,66.3,30.14,North,352,5.2,9.6,82,0.00,,,0.00,WUHU216HW,2013-01-31 09:12:00,
2013-01-31 04:15:00,71.2,65.1,30.14,NE,45,5.1,9.6,81,0.00,,,0.00,WUHU216HW,2013-01-31 09:15:00,
2013-01-31 04:16:00,71.2,65.1,30.14,NE,45,5.1,9.6,81,0.00,,,0.00,WUHU216HW,2013-01-31 09:16:00,
2013-01-31 04:17:00,70.8,64.7,30.15,WNW,293,5.3,9.6,81,0.00,,,0.00,WUHU216HW,2013-01-31 09:17:00,
2013-01-31 04:18:00,70.5,64.5,30.15,NNE,23,7.6,9.6,81,0.00,,,0.00,WUHU216HW,2013-01-31 09:18:00,
2013-01-31 04:20:00,69.9,63.5,30.15,North,0,5.5,9.3,80,0.00,,,0.00,WUHU216HW,2013-01-31 09:20:00,
2013-01-31 04:22:00,69.4,62.9,30.15,North,0,4.8,7.6,80,0.00,,,0.00,WUHU216HW,2013-01-31 09:22:00,
2013-01-31 04:23:00,69.4,62.9,30.15,North,0,4.8,7.6,80,0.00,,,0.00,WUHU216HW,2013-01-31 09:23:00,
2013-01-31 04:26:00,68.7,62.3,30.15,NNE,23,11.6,11.6,80,0.00,,,0.00,WUHU216HW,2013-01-31 09:26:00,
2013-01-31 04:27:00,68.1,61.8,30.15,North,349,3.2,11.6,80,0.00,,,0.00,WUHU216HW,2013-01-31 09:27:00,
2013-01-31 04:28:00,68.1,61.8,30.15,North,349,3.2,11.6,80,0.00,,,0.00,WUHU216HW,2013-01-31 09:28:00,
2013-01-31 04:29:00,67.8,61.5,30.15,NW,312,2.5,11.6,80,0.00,,,0.00,WUHU216HW,2013-01-31 09:29:00,
2013-01-31 04:31:00,67.6,61.3,30.15,NNW,338,0.0,11.6,80,0.00,,,0.00,WUHU216HW,2013-01-31 09:31:00,
2013-01-31 04:33:00,67.2,60.9,30.15,NNW,338,7.3,11.6,80,0.00,,,0.00,WUHU216HW,2013-01-31 09:33:00,
2013-01-31 04:34:00,67.1,60.8,30.15,NNW,338,7.3,11.6,80,0.00,,,0.00,WUHU216HW,2013-01-31 09:34:00,
2013-01-31 04:36:00,66.9,60.6,30.15,NNE,23,2.6,7.3,80,0.00,,,0.00,WUHU216HW,2013-01-31 09:36:00,
2013-01-31 04:38:00,66.7,60.4,30.15,NNW,338,8.7,8.7,80,0.00,,,0.00,WUHU216HW,2013-01-31 09:38:00,
2013-01-31 04:39:00,66.5,60.5,30.15,North,0,12.5,12.5,81,0.00,,,0.00,WUHU216HW,2013-01-31 09:39:00,
2013-01-31 04:41:00,66.3,60.2,30.16,NNE,23,8.5,12.5,81,0.02,,,0.02,WUHU216HW,2013-01-31 09:41:00,
2013-01-31 04:43:00,66.0,59.7,30.15,North,356,10.6,12.5,80,0.02,,,0.02,WUHU216HW,2013-01-31 09:43:00,
2013-01-31 04:44:00,65.8,59.5,30.15,NNE,29,6.2,12.5,80,0.02,,,0.02,WUHU216HW,2013-01-31 09:44:00,
2013-01-31 04:45:00,65.6,59.3,30.15,NE,45,5.1,12.5,80,0.02,,,0.02,WUHU216HW,2013-01-31 09:45:00,
2013-01-31 04:47:00,65.4,59.1,30.16,NNE,33,3.5,12.5,80,0.02,,,0.02,WUHU216HW,2013-01-31 09:47:00,
2013-01-31 04:48:00,65.3,58.8,30.16,North,0,8.0,12.3,80,0.02,,,0.02,WUHU216HW,2013-01-31 09:48:00,
2013-01-31 04:50:00,65.1,58.8,30.16,North,5,5.3,12.3,80,0.02,,,0.02,WUHU216HW,2013-01-31 09:50:00,
2013-01-31 04:54:00,64.5,58.6,30.16,North,8,3.9,8.0,81,0.02,,,0.02,WUHU216HW,2013-01-31 09:54:00,
2013-01-31 04:55:00,64.2,58.2,30.16,North,0,7.6,11.4,81,0.02,,,0.02,WUHU216HW,2013-01-31 09:55:00,
2013-01-31 04:56:00,64.2,58.2,30.16,North,0,2.5,11.4,81,0.02,,,0.02,WUHU216HW,2013-01-31 09:56:00,
2013-01-31 04:59:00,64.0,58.0,30.16,NNE,23,0.8,11.4,81,0.02,,,0.02,WUHU216HW,2013-01-31 09:59:00,
2013-01-31 05:00:00,63.6,57.7,30.16,NNE,23,4.4,11.4,81,0.02,,,0.02,WUHU216HW,2013-01-31 10:00:00,
2013-01-31 05:03:00,63.6,57.7,30.17,NW,317,7.2,14.0,81,0.02,,,0.02,WUHU216HW,2013-01-31 10:03:00,
2013-01-31 05:04:00,63.6,57.7,30.17,NNW,338,12.0,14.0,81,0.02,,,0.02,WUHU216HW,2013-01-31 10:04:00,
2013-01-31 05:06:00,63.3,57.3,30.17,NE,45,4.0,14.0,81,0.02,,,0.02,WUHU216HW,2013-01-31 10:06:00,
2013-01-31 05:08:00,63.1,57.1,30.17,NNE,23,9.1,14.0,81,0.02,,,0.02,WUHU216HW,2013-01-31 10:08:00,
2013-01-31 05:10:00,63.1,57.1,30.17,North,8,6.9,14.0,81,0.02,,,0.02,WUHU216HW,2013-01-31 10:10:00,
2013-01-31 05:11:00,63.1,57.5,30.17,NNW,338,4.6,14.0,82,0.02,,,0.02,WUHU216HW,2013-01-31 10:11:00,
2013-01-31 05:13:00,62.7,57.1,30.17,North,0,4.7,9.1,82,0.02,,,0.02,WUHU216HW,2013-01-31 10:13:00,
2013-01-31 05:15:00,62.6,56.9,30.18,North,7,4.6,9.1,82,0.02,,,0.02,WUHU216HW,2013-01-31 10:15:00,
2013-01-31 05:16:00,62.4,56.8,30.18,NNE,23,3.1,9.1,82,0.02,,,0.02,WUHU216HW,2013-01-31 10:16:00,
2013-01-31 05:18:00,62.4,56.8,30.18,NNE,13,3.5,8.5,82,0.02,,,0.02,WUHU216HW,2013-01-31 10:18:00,
2013-01-31 05:19:00,62.4,56.8,30.18,NE,45,2.0,8.5,82,0.02,,,0.02,WUHU216HW,2013-01-31 10:19:00,
2013-01-31 05:21:00,62.4,56.8,30.18,North,0,3.3,8.5,82,0.02,,,0.02,WUHU216HW,2013-01-31 10:21:00,
2013-01-31 05:22:00,62.2,56.6,30.18,NNE,23,6.9,6.9,82,0.04,,,0.04,WUHU216HW,2013-01-31 10:22:00,
2013-01-31 05:23:00,62.2,56.6,30.18,NNE,13,5.9,6.9,82,0.04,,,0.04,WUHU216HW,2013-01-31 10:23:00,
2013-01-31 05:24:00,62.2,56.6,30.18,North,11,4.8,6.9,82,0.04,,,0.04,WUHU216HW,2013-01-31 10:24:00,
2013-01-31 05:26:00,62.2,56.6,30.18,NNE,23,4.6,6.9,82,0.04,,,0.04,WUHU216HW,2013-01-31 10:26:00,
2013-01-31 05:28:00,61.8,56.4,30.18,NNE,15,4.9,6.9,82,0.04,,,0.04,WUHU216HW,2013-01-31 10:28:00,
2013-01-31 05:29:00,61.8,56.3,30.18,North,0,6.4,6.9,82,0.04,,,0.04,WUHU216HW,2013-01-31 10:29:00,
2013-01-31 05:31:00,61.7,56.1,30.18,NNE,23,7.3,7.3,82,0.04,,,0.04,WUHU216HW,2013-01-31 10:31:00,
2013-01-31 05:33:00,61.5,56.1,30.18,NNE,23,1.3,7.3,82,0.04,,,0.04,WUHU216HW,2013-01-31 10:33:00,
2013-01-31 05:34:00,61.5,56.3,30.17,NNE,23,5.5,7.3,83,0.04,,,0.04,WUHU216HW,2013-01-31 10:34:00,
2013-01-31 05:35:00,61.5,56.3,30.17,NNE,23,5.5,7.3,83,0.04,,,0.04,WUHU216HW,2013-01-31 10:35:00,
2013-01-31 05:38:00,61.5,56.3,30.18,NE,39,3.4,7.3,83,0.04,,,0.04,WUHU216HW,2013-01-31 10:38:00,
2013-01-31 05:39:00,61.3,56.1,30.18,NNE,21,2.5,7.3,83,0.02,,,0.04,WUHU216HW,2013-01-31 10:39:00,
2013-01-31 05:40:00,61.3,56.1,30.18,North,354,1.5,7.3,83,0.02,,,0.04,WUHU216HW,2013-01-31 10:40:00,
2013-01-31 05:43:00,61.1,55.9,30.18,NE,51,6.0,7.6,83,0.03,,,0.05,WUHU216HW,2013-01-31 10:43:00,
2013-01-31 05:45:00,61.1,55.9,30.18,NNE,29,3.1,7.6,83,0.03,,,0.05,WUHU216HW,2013-01-31 10:45:00,
2013-01-31 05:48:00,60.9,55.8,30.19,North,0,4.9,7.6,83,0.03,,,0.05,WUHU216HW,2013-01-31 10:48:00,
2013-01-31 05:50:00,60.9,55.8,30.18,North,0,7.8,7.8,83,0.03,,,0.05,WUHU216HW,2013-01-31 10:50:00,
2013-01-31 05:51:00,60.9,55.8,30.19,North,0,7.8,7.8,83,0.03,,,0.05,WUHU216HW,2013-01-31 10:51:00,
2013-01-31 05:52:00,60.9,55.8,30.19,ENE,68,1.7,7.8,83,0.03,,,0.05,WUHU216HW,2013-01-31 10:52:00,
2013-01-31 05:53:00,60.8,55.8,30.19,NNE,23,8.5,8.5,83,0.03,,,0.05,WUHU216HW,2013-01-31 10:53:00,
2013-01-31 05:55:00,60.8,55.9,30.19,NE,45,1.1,8.5,84,0.03,,,0.05,WUHU216HW,2013-01-31 10:55:00,
2013-01-31 05:56:00,60.8,55.9,30.18,North,0,6.9,8.5,84,0.03,,,0.05,WUHU216HW,2013-01-31 10:56:00,
2013-01-31 05:57:00,60.8,55.7,30.19,NNE,14,5.0,8.5,84,0.03,,,0.05,WUHU216HW,2013-01-31 10:57:00,
2013-01-31 05:59:00,60.6,55.7,30.19,NNE,13,1.5,8.5,84,0.03,,,0.05,WUHU216HW,2013-01-31 10:59:00,
2013-01-31 06:00:00,60.6,55.7,30.19,North,0,4.2,8.5,84,0.03,,,0.05,WUHU216HW,2013-01-31 11:00:00,
2013-01-31 06:02:00,60.6,55.7,30.19,North,11,6.7,8.5,84,0.03,,,0.05,WUHU216HW,2013-01-31 11:02:00,
2013-01-31 06:04:00,60.6,55.7,30.19,NW,315,4.0,6.9,84,0.03,,,0.05,WUHU216HW,2013-01-31 11:04:00,
2013-01-31 06:06:00,60.6,55.7,30.20,North,0,0.0,6.9,84,0.03,,,0.05,WUHU216HW,2013-01-31 11:06:00,
2013-01-31 06:07:00,60.6,55.7,30.20,NNE,23,6.4,6.9,84,0.03,,,0.05,WUHU216HW,2013-01-31 11:07:00,
2013-01-31 06:08:00,60.6,55.7,30.19,NNE,23,4.5,6.9,84,0.03,,,0.05,WUHU216HW,2013-01-31 11:08:00,
2013-01-31 06:10:00,60.6,55.7,30.20,NNE,23,3.3,6.9,84,0.03,,,0.05,WUHU216HW,2013-01-31 11:10:00,
2013-01-31 06:12:00,60.6,55.7,30.19,NNE,23,0.0,6.4,84,0.06,,,0.08,WUHU216HW,2013-01-31 11:12:00,
2013-01-31 06:13:00,60.6,55.7,30.19,NE,45,0.6,6.4,84,0.06,,,0.08,WUHU216HW,2013-01-31 11:13:00,
2013-01-31 06:15:00,60.4,55.6,30.19,NNE,23,2.3,6.4,84,0.06,,,0.08,WUHU216HW,2013-01-31 11:15:00,
2013-01-31 06:17:00,60.4,55.6,30.19,NE,45,3.3,3.3,84,0.06,,,0.08,WUHU216HW,2013-01-31 11:17:00,
2013-01-31 06:18:00,60.4,55.6,30.19,NE,45,2.8,3.3,84,0.06,,,0.08,WUHU216HW,2013-01-31 11:18:00,
2013-01-31 06:19:00,60.4,55.6,30.19,ENE,68,2.9,3.3,84,0.08,,,0.10,WUHU216HW,2013-01-31 11:19:00,
2013-01-31 06:20:00,60.4,55.6,30.19,ENE,60,2.2,3.3,84,0.06,,,0.10,WUHU216HW,2013-01-31 11:20:00,
2013-01-31 06:22:00,60.4,55.6,30.20,NNE,23,4.4,4.4,84,0.06,,,0.10,WUHU216HW,2013-01-31 11:22:00,
2013-01-31 06:23:00,60.4,55.6,30.20,North,0,0.0,4.4,84,0.06,,,0.10,WUHU216HW,2013-01-31 11:23:00,
2013-01-31 06:25:00,60.4,55.6,30.20,NE,45,1.3,4.4,84,0.06,,,0.10,WUHU216HW,2013-01-31 11:25:00,
2013-01-31 06:27:00,60.4,55.6,30.20,NNE,23,0.6,4.4,84,0.06,,,0.10,WUHU216HW,2013-01-31 11:27:00,
2013-01-31 06:28:00,60.4,55.6,30.20,NNE,23,0.6,4.4,84,0.06,,,0.10,WUHU216HW,2013-01-31 11:28:00,
2013-01-31 06:32:00,60.4,55.6,30.21,NNE,23,0.0,3.8,84,0.06,,,0.10,WUHU216HW,2013-01-31 11:32:00,
2013-01-31 06:33:00,60.4,55.6,30.21,NNE,23,2.4,3.8,84,0.06,,,0.10,WUHU216HW,2013-01-31 11:33:00,
2013-01-31 06:34:00,60.4,55.6,30.20,NNE,12,2.3,3.8,84,0.06,,,0.10,WUHU216HW,2013-01-31 11:34:00,
2013-01-31 06:37:00,60.4,55.6,30.21,NNE,23,3.5,3.8,84,0.06,,,0.10,WUHU216HW,2013-01-31 11:37:00,
2013-01-31 06:38:00,60.4,55.6,30.21,NNE,23,0.0,3.8,84,0.06,,,0.10,WUHU216HW,2013-01-31 11:38:00,
2013-01-31 06:39:00,60.4,55.6,30.21,NNE,23,0.0,3.5,84,0.05,,,0.10,WUHU216HW,2013-01-31 11:39:00,
2013-01-31 06:42:00,60.4,55.6,30.21,NNE,23,3.3,3.5,84,0.05,,,0.10,WUHU216HW,2013-01-31 11:42:00,
2013-01-31 06:44:00,60.4,55.6,30.21,NNE,23,2.5,3.5,84,0.05,,,0.10,WUHU216HW,2013-01-31 11:44:00,
2013-01-31 06:45:00,60.4,55.6,30.21,NNE,23,1.7,3.5,84,0.05,,,0.10,WUHU216HW,2013-01-31 11:45:00,
2013-01-31 06:49:00,60.2,55.4,30.21,NNE,23,0.0,3.8,84,0.05,,,0.10,WUHU216HW,2013-01-31 11:49:00,
2013-01-31 06:50:00,60.2,55.4,30.21,NNE,23,0.0,3.8,84,0.05,,,0.10,WUHU216HW,2013-01-31 11:50:00,
2013-01-31 06:55:00,60.2,55.4,30.21,NNE,23,2.9,3.8,84,0.05,,,0.10,WUHU216HW,2013-01-31 11:55:00,
2013-01-31 06:56:00,60.0,55.2,30.22,NNE,23,2.2,2.9,84,0.07,,,0.12,WUHU216HW,2013-01-31 11:56:00,
2013-01-31 07:00:00,60.0,55.2,30.22,NNE,23,0.0,2.9,84,0.07,,,0.12,WUHU216HW,2013-01-31 12:00:00,
2013-01-31 07:01:00,60.0,55.2,30.23,NNW,338,1.7,2.9,84,0.07,,,0.12,WUHU216HW,2013-01-31 12:01:00,
2013-01-31 07:05:00,60.0,55.2,30.23,NNE,23,1.4,2.2,84,0.07,,,0.12,WUHU216HW,2013-01-31 12:05:00,
2013-01-31 07:06:00,60.0,55.2,30.23,NNE,23,1.1,2.2,84,0.07,,,0.12,WUHU216HW,2013-01-31 12:06:00,
2013-01-31 07:07:00,60.0,55.4,30.23,NNE,23,1.3,1.7,84,0.07,,,0.12,WUHU216HW,2013-01-31 12:07:00,
2013-01-31 07:10:00,60.2,55.9,30.23,NNE,23,0.0,1.7,85,0.04,,,0.12,WUHU216HW,2013-01-31 12:10:00,
2013-01-31 07:11:00,60.4,55.6,30.23,NNE,23,0.0,1.7,84,0.04,,,0.12,WUHU216HW,2013-01-31 12:11:00,
2013-01-31 07:12:00,60.4,55.6,30.24,NNE,23,0.0,1.7,84,0.04,,,0.12,WUHU216HW,2013-01-31 12:12:00,
2013-01-31 07:16:00,60.4,55.9,30.24,NNE,23,0.0,3.1,85,0.04,,,0.12,WUHU216HW,2013-01-31 12:16:00,
2013-01-31 07:17:00,60.4,55.9,30.24,NNE,23,0.0,3.1,85,0.04,,,0.12,WUHU216HW,2013-01-31 12:17:00,
2013-01-31 07:18:00,60.4,55.6,30.24,NNE,23,1.5,3.1,84,0.02,,,0.12,WUHU216HW,2013-01-31 12:18:00,
2013-01-31 07:21:00,60.4,55.6,30.24,NNE,23,4.0,4.0,84,0.02,,,0.12,WUHU216HW,2013-01-31 12:21:00,
2013-01-31 07:23:00,60.4,55.6,30.24,NNE,23,0.0,4.0,84,0.02,,,0.12,WUHU216HW,2013-01-31 12:23:00,
2013-01-31 07:25:00,60.4,55.9,30.24,NNE,23,0.0,4.0,85,0.02,,,0.12,WUHU216HW,2013-01-31 12:25:00,
2013-01-31 07:26:00,60.4,55.6,30.24,NNE,23,0.0,4.0,84,0.02,,,0.12,WUHU216HW,2013-01-31 12:26:00,
2013-01-31 07:28:00,60.4,55.6,30.24,NNE,23,0.0,4.0,84,0.02,,,0.12,WUHU216HW,2013-01-31 12:28:00,
2013-01-31 07:29:00,60.4,55.6,30.24,NNE,23,2.2,4.0,84,0.02,,,0.12,WUHU216HW,2013-01-31 12:29:00,
2013-01-31 07:31:00,60.4,55.6,30.24,NNE,23,1.7,2.2,84,0.02,,,0.12,WUHU216HW,2013-01-31 12:31:00,
2013-01-31 07:33:00,60.4,55.6,30.24,NNE,23,0.0,2.2,84,0.02,,,0.12,WUHU216HW,2013-01-31 12:33:00,
2013-01-31 07:34:00,60.4,55.6,30.24,NNE,23,0.0,2.2,84,0.02,,,0.12,WUHU216HW,2013-01-31 12:34:00,
2013-01-31 07:35:00,60.4,55.6,30.24,NNE,23,3.8,3.8,84,0.02,,,0.12,WUHU216HW,2013-01-31 12:35:00,
2013-01-31 07:36:00,60.4,55.6,30.25,NNE,23,3.8,3.8,84,0.02,,,0.12,WUHU216HW,2013-01-31 12:36:00,
2013-01-31 07:38:00,60.4,55.6,30.25,NNE,23,2.0,3.8,84,0.02,,,0.12,WUHU216HW,2013-01-31 12:38:00,
2013-01-31 07:39:00,60.4,55.6,30.25,NNE,23,2.0,3.8,84,0.02,,,0.12,WUHU216HW,2013-01-31 12:39:00,
2013-01-31 07:40:00,60.4,55.6,30.25,NNE,23,0.0,3.8,84,0.02,,,0.12,WUHU216HW,2013-01-31 12:40:00,
2013-01-31 07:41:00,60.4,55.6,30.25,NNE,23,0.0,3.8,84,0.02,,,0.12,WUHU216HW,2013-01-31 12:41:00,
2013-01-31 07:43:00,60.4,55.6,30.25,NNE,23,2.0,3.8,84,0.02,,,0.12,WUHU216HW,2013-01-31 12:43:00,
2013-01-31 07:44:00,60.4,55.6,30.25,NNE,23,0.0,3.8,84,0.02,,,0.12,WUHU216HW,2013-01-31 12:44:00,
2013-01-31 07:46:00,60.4,55.6,30.25,NNE,23,2.0,2.0,84,0.02,,,0.12,WUHU216HW,2013-01-31 12:46:00,
2013-01-31 07:49:00,60.6,55.6,30.24,East,90,0.0,2.0,84,0.02,,,0.12,WUHU216HW,2013-01-31 12:49:00,
2013-01-31 07:50:00,60.6,55.6,30.24,East,90,0.0,2.0,84,0.02,,,0.12,WUHU216HW,2013-01-31 12:50:00,
2013-01-31 07:51:00,60.6,55.7,30.25,ENE,68,0.0,2.0,84,0.02,,,0.12,WUHU216HW,2013-01-31 12:51:00,
2013-01-31 07:52:00,60.6,55.7,30.25,ENE,68,0.0,2.0,84,0.02,,,0.12,WUHU216HW,2013-01-31 12:52:00,
2013-01-31 07:54:00,60.6,55.7,30.25,ENE,68,0.0,2.0,84,0.00,,,0.12,WUHU216HW,2013-01-31 12:54:00,
2013-01-31 07:55:00,60.6,55.7,30.25,NNE,23,0.0,2.0,84,0.00,,,0.12,WUHU216HW,2013-01-31 12:55:00,
2013-01-31 07:57:00,60.6,55.7,30.25,NNE,23,0.0,0.0,84,0.00,,,0.12,WUHU216HW,2013-01-31 12:57:00,
2013-01-31 07:58:00,60.6,55.7,30.25,NNE,23,0.0,0.0,84,0.00,,,0.12,WUHU216HW,2013-01-31 12:58:00,
2013-01-31 07:59:00,60.6,55.7,30.25,NNE,23,2.6,2.6,84,0.00,,,0.12,WUHU216HW,2013-01-31 12:59:00,
2013-01-31 08:01:00,60.6,55.7,30.25,NNE,23,0.0,2.6,84,0.00,,,0.12,WUHU216HW,2013-01-31 13:01:00,
2013-01-31 08:02:00,60.6,55.7,30.25,NNE,23,0.0,2.6,84,0.00,,,0.12,WUHU216HW,2013-01-31 13:02:00,
2013-01-31 08:04:00,60.6,55.7,30.25,NE,45,0.0,2.6,84,0.00,,,0.12,WUHU216HW,2013-01-31 13:04:00,
2013-01-31 08:06:00,60.6,55.7,30.25,NE,45,0.0,2.6,84,0.00,,,0.12,WUHU216HW,2013-01-31 13:06:00,
2013-01-31 08:07:00,60.6,55.7,30.25,NE,45,0.0,2.6,84,0.00,,,0.12,WUHU216HW,2013-01-31 13:07:00,
2013-01-31 08:09:00,60.8,55.9,30.25,NE,45,1.5,1.5,84,0.00,,,0.12,WUHU216HW,2013-01-31 13:09:00,
2013-01-31 08:11:00,60.9,56.1,30.26,NNE,23,0.0,1.5,84,0.00,,,0.12,WUHU216HW,2013-01-31 13:11:00,
2013-01-31 08:12:00,60.9,56.1,30.25,NNE,23,1.3,1.5,84,0.00,,,0.12,WUHU216HW,2013-01-31 13:12:00,
2013-01-31 08:13:00,60.9,56.1,30.26,NNE,23,1.3,1.5,84,0.00,,,0.12,WUHU216HW,2013-01-31 13:13:00,
2013-01-31 08:14:00,60.9,56.1,30.26,NNE,23,0.0,1.5,84,0.00,,,0.12,WUHU216HW,2013-01-31 13:14:00,
2013-01-31 08:16:00,60.9,56.1,30.26,NNE,23,0.6,1.5,84,0.00,,,0.12,WUHU216HW,2013-01-31 13:16:00,
2013-01-31 08:17:00,60.9,56.1,30.26,NNE,23,0.6,1.5,84,0.00,,,0.12,WUHU216HW,2013-01-31 13:17:00,
2013-01-31 08:19:00,60.9,56.1,30.26,NNE,23,0.0,1.3,84,0.00,,,0.12,WUHU216HW,2013-01-31 13:19:00,
2013-01-31 08:20:00,60.9,56.4,30.26,NNE,23,1.7,1.7,85,0.00,,,0.12,WUHU216HW,2013-01-31 13:20:00,
2013-01-31 08:22:00,60.9,56.4,30.26,NNE,23,0.0,1.7,85,0.00,,,0.12,WUHU216HW,2013-01-31 13:22:00,
2013-01-31 08:23:00,61.1,56.6,30.26,NNE,23,0.0,1.7,85,0.00,,,0.12,WUHU216HW,2013-01-31 13:23:00,
2013-01-31 08:26:00,61.1,56.6,30.26,NNE,23,0.0,1.7,85,0.00,,,0.12,WUHU216HW,2013-01-31 13:26:00,
2013-01-31 08:28:00,61.1,56.6,30.26,NNE,23,0.0,1.7,85,0.00,,,0.12,WUHU216HW,2013-01-31 13:28:00,
2013-01-31 08:29:00,61.1,56.6,30.26,NNE,23,0.0,1.7,85,0.00,,,0.12,WUHU216HW,2013-01-31 13:29:00,
2013-01-31 08:31:00,61.1,56.6,30.27,NNE,23,0.0,0.0,85,0.02,,,0.14,WUHU216HW,2013-01-31 13:31:00,
2013-01-31 08:34:00,61.3,56.8,30.27,NNE,23,0.0,0.0,85,0.02,,,0.14,WUHU216HW,2013-01-31 13:34:00,
2013-01-31 08:36:00,61.3,56.8,30.27,NNE,23,0.0,0.0,85,0.02,,,0.14,WUHU216HW,2013-01-31 13:36:00,
2013-01-31 08:37:00,61.3,56.8,30.27,NNE,23,0.0,0.0,85,0.02,,,0.14,WUHU216HW,2013-01-31 13:37:00,
2013-01-31 08:39:00,61.3,56.8,30.27,NNE,23,0.0,0.0,85,0.02,,,0.14,WUHU216HW,2013-01-31 13:39:00,
2013-01-31 08:41:00,61.3,56.8,30.27,NNE,23,0.0,0.0,85,0.02,,,0.14,WUHU216HW,2013-01-31 13:41:00,
2013-01-31 08:42:00,61.3,56.8,30.27,NNE,23,2.2,2.2,85,0.02,,,0.14,WUHU216HW,2013-01-31 13:42:00,
2013-01-31 08:43:00,61.3,56.8,30.27,NNE,23,2.2,2.2,85,0.02,,,0.14,WUHU216HW,2013-01-31 13:43:00,
2013-01-31 08:44:00,61.3,56.8,30.27,NNE,23,2.2,2.2,85,0.02,,,0.14,WUHU216HW,2013-01-31 13:44:00,
2013-01-31 08:46:00,61.3,56.9,30.27,NE,45,0.0,2.2,85,0.02,,,0.14,WUHU216HW,2013-01-31 13:46:00,
2013-01-31 08:47:00,61.5,56.9,30.28,NE,45,0.0,2.2,85,0.02,,,0.14,WUHU216HW,2013-01-31 13:47:00,
2013-01-31 08:49:00,61.5,56.9,30.28,NNE,23,2.9,2.9,85,0.02,,,0.14,WUHU216HW,2013-01-31 13:49:00,
2013-01-31 08:50:00,61.5,56.9,30.28,NNE,23,2.3,2.9,85,0.02,,,0.14,WUHU216HW,2013-01-31 13:50:00,
2013-01-31 08:51:00,61.5,56.9,30.28,NNE,23,1.7,2.9,85,0.02,,,0.14,WUHU216HW,2013-01-31 13:51:00,
2013-01-31 08:53:00,61.5,56.9,30.28,NNE,23,3.1,3.1,85,0.02,,,0.14,WUHU216HW,2013-01-31 13:53:00,
2013-01-31 08:54:00,61.5,56.9,30.28,NNE,23,0.0,3.1,85,0.02,,,0.14,WUHU216HW,2013-01-31 13:54:00,
2013-01-31 08:55:00,61.5,56.9,30.28,NNE,23,0.0,3.1,85,0.02,,,0.14,WUHU216HW,2013-01-31 13:55:00,
2013-01-31 08:57:00,61.5,56.9,30.28,NNE,23,0.0,3.1,85,0.02,,,0.14,WUHU216HW,2013-01-31 13:57:00,
2013-01-31 08:58:00,61.5,56.9,30.28,NNE,23,0.0,3.1,85,0.02,,,0.14,WUHU216HW,2013-01-31 13:58:00,
2013-01-31 08:59:00,61.5,56.9,30.28,ENE,68,1.1,3.1,85,0.02,,,0.14,WUHU216HW,2013-01-31 13:59:00,
2013-01-31 09:01:00,61.7,57.1,30.28,East,90,0.0,3.1,85,0.02,,,0.14,WUHU216HW,2013-01-31 14:01:00,
2013-01-31 09:03:00,61.7,57.1,30.28,NE,45,0.0,1.1,85,0.02,,,0.14,WUHU216HW,2013-01-31 14:03:00,
2013-01-31 09:04:00,61.7,56.8,30.28,NE,45,0.0,1.1,84,0.02,,,0.14,WUHU216HW,2013-01-31 14:04:00,
2013-01-31 09:07:00,61.7,56.8,30.27,ENE,68,0.0,2.4,84,0.02,,,0.14,WUHU216HW,2013-01-31 14:07:00,
2013-01-31 09:09:00,61.5,56.6,30.27,NE,45,2.4,2.4,84,0.02,,,0.14,WUHU216HW,2013-01-31 14:09:00,
2013-01-31 09:12:00,61.7,56.8,30.27,East,90,0.0,2.4,84,0.02,,,0.14,WUHU216HW,2013-01-31 14:12:00,
2013-01-31 09:14:00,61.7,56.8,30.27,East,90,3.5,3.5,84,0.02,,,0.14,WUHU216HW,2013-01-31 14:14:00,
2013-01-31 09:15:00,61.7,56.8,30.27,East,90,3.5,3.5,84,0.02,,,0.14,WUHU216HW,2013-01-31 14:15:00,
2013-01-31 09:18:00,61.8,56.9,30.28,ENE,68,0.0,3.5,84,0.02,,,0.14,WUHU216HW,2013-01-31 14:18:00,
2013-01-31 09:19:00,61.7,56.8,30.28,ENE,68,0.0,3.5,84,0.02,,,0.14,WUHU216HW,2013-01-31 14:19:00,
2013-01-31 09:20:00,61.8,56.9,30.27,ENE,68,0.0,3.5,84,0.02,,,0.14,WUHU216HW,2013-01-31 14:20:00,
2013-01-31 09:21:00,61.8,56.9,30.27,ENE,68,0.0,3.5,84,0.02,,,0.14,WUHU216HW,2013-01-31 14:21:00,
2013-01-31 09:24:00,61.8,56.9,30.28,NE,45,0.0,0.6,84,0.02,,,0.14,WUHU216HW,2013-01-31 14:24:00,
2013-01-31 09:25:00,61.8,56.9,30.28,NE,45,0.0,0.6,84,0.02,,,0.14,WUHU216HW,2013-01-31 14:25:00,
2013-01-31 09:26:00,61.8,56.9,30.28,North,0,2.0,2.0,84,0.02,,,0.14,WUHU216HW,2013-01-31 14:26:00,
2013-01-31 09:29:00,62.2,57.3,30.29,ESE,113,3.1,3.1,84,0.02,,,0.14,WUHU216HW,2013-01-31 14:29:00,
2013-01-31 09:30:00,62.2,57.3,30.29,ESE,113,3.1,3.1,84,0.00,,,0.14,WUHU216HW,2013-01-31 14:30:00,
2013-01-31 09:31:00,62.0,57.1,30.29,North,0,0.0,3.1,84,0.00,,,0.14,WUHU216HW,2013-01-31 14:31:00,
2013-01-31 09:35:00,62.2,57.3,30.29,ENE,68,0.0,3.1,84,0.00,,,0.14,WUHU216HW,2013-01-31 14:35:00,
2013-01-31 09:36:00,62.2,57.3,30.29,ENE,68,0.0,3.1,84,0.00,,,0.14,WUHU216HW,2013-01-31 14:36:00,
2013-01-31 09:37:00,62.2,57.3,30.29,ENE,68,0.0,3.1,84,0.00,,,0.14,WUHU216HW,2013-01-31 14:37:00,
2013-01-31 09:40:00,62.4,57.4,30.29,NE,45,0.0,0.0,84,0.00,,,0.14,WUHU216HW,2013-01-31 14:40:00,
2013-01-31 09:41:00,62.4,57.4,30.29,NE,45,0.0,0.0,84,0.00,,,0.14,WUHU216HW,2013-01-31 14:41:00,
2013-01-31 09:42:00,62.4,57.4,30.29,NE,45,0.0,0.0,84,0.00,,,0.14,WUHU216HW,2013-01-31 14:42:00,
2013-01-31 09:44:00,62.4,57.4,30.29,East,90,0.0,0.0,84,0.00,,,0.14,WUHU216HW,2013-01-31 14:44:00,
2013-01-31 09:46:00,62.4,57.4,30.29,ENE,68,0.0,0.0,84,0.00,,,0.14,WUHU216HW,2013-01-31 14:46:00,
2013-01-31 09:47:00,62.4,57.4,30.30,North,0,0.0,0.0,84,0.00,,,0.14,WUHU216HW,2013-01-31 14:47:00,
2013-01-31 09:50:00,62.4,57.4,30.30,ENE,68,0.0,0.0,84,0.00,,,0.14,WUHU216HW,2013-01-31 14:50:00,
2013-01-31 09:51:00,62.4,57.4,30.30,ENE,68,1.3,1.3,84,0.00,,,0.14,WUHU216HW,2013-01-31 14:51:00,
2013-01-31 09:52:00,62.4,57.4,30.30,NE,45,2.6,2.6,84,0.00,,,0.14,WUHU216HW,2013-01-31 14:52:00,
2013-01-31 09:55:00,62.4,57.4,30.30,NNE,23,3.1,3.1,84,0.00,,,0.14,WUHU216HW,2013-01-31 14:55:00,
2013-01-31 09:56:00,62.4,57.5,30.30,South,180,2.5,3.1,84,0.00,,,0.14,WUHU216HW,2013-01-31 14:56:00,
2013-01-31 09:57:00,62.4,57.4,30.30,South,180,2.5,3.1,84,0.00,,,0.14,WUHU216HW,2013-01-31 14:57:00,
2013-01-31 09:58:00,62.4,57.4,30.30,South,180,2.5,3.1,84,0.00,,,0.14,WUHU216HW,2013-01-31 14:58:00,
2013-01-31 10:00:00,62.4,57.4,30.30,NW,315,0.0,3.1,84,0.00,,,0.14,WUHU216HW,2013-01-31 15:00:00,
2013-01-31 10:03:00,62.4,57.6,30.30,NNE,23,4.0,4.0,84,0.00,,,0.14,WUHU216HW,2013-01-31 15:03:00,
2013-01-31 10:05:00,62.4,57.4,30.30,NE,45,3.8,4.0,84,0.00,,,0.14,WUHU216HW,2013-01-31 15:05:00,
2013-01-31 10:08:00,62.4,57.4,30.29,NNE,23,0.0,4.0,84,0.00,,,0.14,WUHU216HW,2013-01-31 15:08:00,
2013-01-31 10:09:00,62.4,57.4,30.29,ENE,68,0.0,4.0,84,0.02,,,0.16,WUHU216HW,2013-01-31 15:09:00,
2013-01-31 10:10:00,62.4,57.4,30.29,ENE,68,0.0,4.0,84,0.02,,,0.16,WUHU216HW,2013-01-31 15:10:00,
2013-01-31 10:11:00,62.4,57.4,30.30,East,90,1.3,3.8,84,0.02,,,0.16,WUHU216HW,2013-01-31 15:11:00,
2013-01-31 10:14:00,62.6,57.6,30.30,NNE,23,2.2,2.4,84,0.02,,,0.16,WUHU216HW,2013-01-31 15:14:00,
2013-01-31 10:15:00,62.4,57.4,30.30,NNE,23,0.0,2.2,84,0.02,,,0.16,WUHU216HW,2013-01-31 15:15:00,
2013-01-31 10:16:00,62.4,57.4,30.30,NNE,23,0.0,2.2,84,0.02,,,0.16,WUHU216HW,2013-01-31 15:16:00,
2013-01-31 10:17:00,62.6,57.6,30.30,NNE,23,0.0,2.2,84,0.02,,,0.16,WUHU216HW,2013-01-31 15:17:00,
2013-01-31 10:20:00,62.7,57.8,30.30,East,90,2.0,2.2,84,0.02,,,0.16,WUHU216HW,2013-01-31 15:20:00,
2013-01-31 10:21:00,62.6,57.6,30.30,East,90,2.0,2.2,84,0.02,,,0.16,WUHU216HW,2013-01-31 15:21:00,
2013-01-31 10:23:00,62.6,57.6,30.30,North,0,6.2,6.2,84,0.02,,,0.16,WUHU216HW,2013-01-31 15:23:00,
2013-01-31 10:25:00,62.7,57.8,30.31,NNE,23,0.0,6.2,84,0.02,,,0.16,WUHU216HW,2013-01-31 15:25:00,
2013-01-31 10:26:00,62.7,57.8,30.30,NNE,23,3.3,6.2,84,0.02,,,0.16,WUHU216HW,2013-01-31 15:26:00,
2013-01-31 10:28:00,62.7,57.8,30.31,NNE,23,0.0,6.2,84,0.02,,,0.16,WUHU216HW,2013-01-31 15:28:00,
2013-01-31 10:29:00,62.7,57.8,30.31,NNE,23,0.0,6.2,84,0.02,,,0.16,WUHU216HW,2013-01-31 15:29:00,
2013-01-31 10:31:00,62.9,57.5,30.30,North,0,1.1,6.2,84,0.02,,,0.16,WUHU216HW,2013-01-31 15:31:00,
2013-01-31 10:32:00,62.9,57.6,30.30,NNE,23,1.1,5.8,83,0.02,,,0.16,WUHU216HW,2013-01-31 15:32:00,
2013-01-31 10:34:00,62.9,57.6,30.30,NE,45,1.3,3.3,83,0.02,,,0.16,WUHU216HW,2013-01-31 15:34:00,
2013-01-31 10:35:00,62.9,57.6,30.30,NE,45,1.3,3.3,83,0.02,,,0.16,WUHU216HW,2013-01-31 15:35:00,
2013-01-31 10:36:00,62.9,57.6,30.30,NNE,23,0.0,1.3,83,0.02,,,0.16,WUHU216HW,2013-01-31 15:36:00,
2013-01-31 10:38:00,63.1,57.8,30.30,NNE,23,0.0,1.3,83,0.02,,,0.16,WUHU216HW,2013-01-31 15:38:00,
2013-01-31 10:39:00,63.1,57.8,30.30,NE,45,2.4,2.4,83,0.02,,,0.16,WUHU216HW,2013-01-31 15:39:00,
2013-01-31 10:40:00,63.1,57.8,30.30,NE,45,2.4,2.4,83,0.02,,,0.16,WUHU216HW,2013-01-31 15:40:00,
2013-01-31 10:43:00,63.1,57.8,30.30,ENE,68,2.2,3.3,83,0.02,,,0.16,WUHU216HW,2013-01-31 15:43:00,
2013-01-31 10:45:00,63.1,57.8,30.30,NNE,23,2.2,3.3,83,0.02,,,0.16,WUHU216HW,2013-01-31 15:45:00,
2013-01-31 10:48:00,63.1,58.0,30.30,NNE,23,2.4,3.3,83,0.02,,,0.16,WUHU216HW,2013-01-31 15:48:00,
2013-01-31 10:50:00,63.3,58.0,30.30,NNE,23,2.4,3.3,83,0.02,,,0.16,WUHU216HW,2013-01-31 15:50:00,
2013-01-31 10:54:00,63.5,58.2,30.30,NNE,23,0.0,3.3,83,0.02,,,0.16,WUHU216HW,2013-01-31 15:54:00,
2013-01-31 10:55:00,63.5,58.2,30.30,NNE,23,0.0,2.4,83,0.02,,,0.16,WUHU216HW,2013-01-31 15:55:00,
2013-01-31 10:57:00,63.5,58.2,30.30,NNE,23,3.5,3.5,83,0.02,,,0.16,WUHU216HW,2013-01-31 15:57:00,
2013-01-31 10:59:00,63.6,58.4,30.30,NNE,23,2.6,3.5,83,0.02,,,0.16,WUHU216HW,2013-01-31 15:59:00,
2013-01-31 11:01:00,63.6,58.0,30.30,NNE,23,0.8,3.5,82,0.02,,,0.16,WUHU216HW,2013-01-31 16:01:00,
2013-01-31 11:02:00,63.6,58.0,30.30,ESE,113,4.2,4.2,82,0.02,,,0.16,WUHU216HW,2013-01-31 16:02:00,
2013-01-31 11:04:00,63.6,58.0,30.30,NNE,23,0.0,4.2,82,0.02,,,0.16,WUHU216HW,2013-01-31 16:04:00,
2013-01-31 11:06:00,63.8,58.5,30.30,NE,45,4.2,4.2,83,0.02,,,0.16,WUHU216HW,2013-01-31 16:06:00,
2013-01-31 11:07:00,64.0,58.7,30.30,NNE,23,0.0,4.2,83,0.02,,,0.16,WUHU216HW,2013-01-31 16:07:00,
2013-01-31 11:08:00,64.0,58.7,30.30,NNE,23,0.8,4.2,83,0.00,,,0.16,WUHU216HW,2013-01-31 16:08:00,
2013-01-31 11:10:00,64.0,58.7,30.30,NNE,23,0.8,4.2,83,0.00,,,0.16,WUHU216HW,2013-01-31 16:10:00,
2013-01-31 11:12:00,64.0,58.4,30.30,NE,35,2.8,4.2,82,0.00,,,0.16,WUHU216HW,2013-01-31 16:12:00,
2013-01-31 11:13:00,64.0,58.4,30.30,NE,35,2.8,4.2,82,0.00,,,0.16,WUHU216HW,2013-01-31 16:13:00,
2013-01-31 11:15:00,64.0,58.4,30.30,North,0,5.1,5.5,82,0.00,,,0.16,WUHU216HW,2013-01-31 16:15:00,
2013-01-31 11:17:00,64.0,58.4,30.30,NNE,23,0.0,5.5,82,0.00,,,0.16,WUHU216HW,2013-01-31 16:17:00,
2013-01-31 11:18:00,64.0,58.4,30.30,NNE,23,1.7,5.5,82,0.00,,,0.16,WUHU216HW,2013-01-31 16:18:00,
2013-01-31 11:20:00,64.0,58.0,30.30,NE,45,2.6,5.5,81,0.00,,,0.16,WUHU216HW,2013-01-31 16:20:00,
2013-01-31 11:21:00,64.0,58.0,30.30,NE,45,2.6,5.5,81,0.00,,,0.16,WUHU216HW,2013-01-31 16:21:00,
2013-01-31 11:22:00,64.0,58.0,30.30,NNE,31,1.4,5.5,81,0.00,,,0.16,WUHU216HW,2013-01-31 16:22:00,
2013-01-31 11:23:00,64.0,58.0,30.30,NNE,23,2.0,5.1,81,0.00,,,0.16,WUHU216HW,2013-01-31 16:23:00,
2013-01-31 11:26:00,64.0,58.0,30.30,NE,45,2.9,2.9,81,0.00,,,0.16,WUHU216HW,2013-01-31 16:26:00,
2013-01-31 11:28:00,64.0,58.0,30.30,NE,45,2.9,2.9,81,0.00,,,0.16,WUHU216HW,2013-01-31 16:28:00,
2013-01-31 11:29:00,64.0,58.0,30.30,NE,45,1.1,2.9,81,0.00,,,0.16,WUHU216HW,2013-01-31 16:29:00,
2013-01-31 11:31:00,64.0,58.0,30.30,NNE,12,1.4,2.9,81,0.00,,,0.16,WUHU216HW,2013-01-31 16:31:00,
2013-01-31 11:32:00,64.0,58.0,30.30,NNE,12,1.4,2.9,81,0.00,,,0.16,WUHU216HW,2013-01-31 16:32:00,
2013-01-31 11:34:00,64.0,58.0,30.30,North,0,1.7,2.9,81,0.00,,,0.16,WUHU216HW,2013-01-31 16:34:00,
2013-01-31 11:36:00,64.2,58.2,30.30,NNW,342,2.5,3.8,81,0.00,,,0.16,WUHU216HW,2013-01-31 16:36:00,
2013-01-31 11:37:00,64.2,58.2,30.30,NE,45,3.3,3.8,81,0.00,,,0.16,WUHU216HW,2013-01-31 16:37:00,
2013-01-31 11:40:00,64.4,58.1,30.30,NNE,19,3.9,4.6,80,0.00,,,0.16,WUHU216HW,2013-01-31 16:40:00,
2013-01-31 11:41:00,64.2,57.9,30.30,NE,48,2.0,4.6,80,0.00,,,0.16,WUHU216HW,2013-01-31 16:41:00,
2013-01-31 11:42:00,64.5,58.2,30.30,North,0,2.6,4.6,80,0.00,,,0.16,WUHU216HW,2013-01-31 16:42:00,
2013-01-31 11:43:00,64.5,58.2,30.30,North,0,2.6,4.6,80,0.00,,,0.16,WUHU216HW,2013-01-31 16:43:00,
2013-01-31 11:45:00,64.7,58.4,30.30,North,7,4.4,5.8,80,0.00,,,0.16,WUHU216HW,2013-01-31 16:45:00,
2013-01-31 11:46:00,64.7,58.4,30.30,North,7,4.4,5.8,80,0.00,,,0.16,WUHU216HW,2013-01-31 16:46:00,
2013-01-31 11:48:00,64.7,58.4,30.30,NNE,30,2.2,5.8,80,0.00,,,0.16,WUHU216HW,2013-01-31 16:48:00,
2013-01-31 11:50:00,64.7,58.0,30.30,ENE,68,2.9,5.8,79,0.00,,,0.16,WUHU216HW,2013-01-31 16:50:00,
2013-01-31 11:51:00,64.9,58.2,30.30,ENE,65,1.1,5.8,79,0.00,,,0.16,WUHU216HW,2013-01-31 16:51:00,
2013-01-31 11:53:00,64.9,58.2,30.30,NE,45,2.4,5.8,79,0.00,,,0.16,WUHU216HW,2013-01-31 16:53:00,
2013-01-31 11:54:00,64.9,58.2,30.30,NE,45,2.4,5.8,79,0.00,,,0.16,WUHU216HW,2013-01-31 16:54:00,
2013-01-31 11:56:00,64.9,58.2,30.29,NE,45,2.9,3.8,79,0.00,,,0.16,WUHU216HW,2013-01-31 16:56:00,
2013-01-31 11:57:00,64.9,58.2,30.30,NE,45,2.9,3.8,79,0.00,,,0.16,WUHU216HW,2013-01-31 16:57:00,
2013-01-31 11:59:00,64.9,58.2,30.30,NE,45,3.1,3.8,79,0.00,,,0.16,WUHU216HW,2013-01-31 16:59:00,
2013-01-31 12:02:00,64.9,58.2,30.28,NNE,23,0.0,3.1,79,0.00,,,0.16,WUHU216HW,2013-01-31 17:02:00,
2013-01-31 12:03:00,64.9,58.2,30.28,NNE,23,0.0,3.1,79,0.00,,,0.16,WUHU216HW,2013-01-31 17:03:00,
2013-01-31 12:04:00,64.9,58.2,30.29,NNW,338,3.1,3.1,79,0.00,,,0.16,WUHU216HW,2013-01-31 17:04:00,
2013-01-31 12:08:00,64.9,57.9,30.29,NNE,23,3.8,4.0,78,0.00,,,0.16,WUHU216HW,2013-01-31 17:08:00,
2013-01-31 12:09:00,65.1,58.0,30.29,NNE,23,2.9,4.0,78,0.00,,,0.16,WUHU216HW,2013-01-31 17:09:00,
2013-01-31 12:10:00,65.1,58.0,30.29,NNE,23,2.9,4.0,78,0.00,,,0.16,WUHU216HW,2013-01-31 17:10:00,
2013-01-31 12:13:00,65.1,58.0,30.29,NNE,23,1.7,4.0,78,0.00,,,0.16,WUHU216HW,2013-01-31 17:13:00,
2013-01-31 12:15:00,65.4,58.4,30.29,NE,45,3.3,3.8,78,0.00,,,0.16,WUHU216HW,2013-01-31 17:15:00,
2013-01-31 12:18:00,65.4,58.0,30.29,NE,37,3.6,5.3,77,0.00,,,0.16,WUHU216HW,2013-01-31 17:18:00,
2013-01-31 12:19:00,65.6,58.0,30.29,NNE,12,2.4,5.3,77,0.00,,,0.16,WUHU216HW,2013-01-31 17:19:00,
2013-01-31 12:21:00,65.6,58.2,30.29,North,0,2.2,5.3,77,0.00,,,0.16,WUHU216HW,2013-01-31 17:21:00,
2013-01-31 12:25:00,66.0,58.5,30.28,NNW,338,0.0,5.3,77,0.00,,,0.16,WUHU216HW,2013-01-31 17:25:00,
2013-01-31 12:26:00,66.0,58.5,30.28,NNW,338,0.0,5.3,77,0.00,,,0.16,WUHU216HW,2013-01-31 17:26:00,
2013-01-31 12:30:00,66.2,58.3,30.29,North,0,7.1,7.1,76,0.00,,,0.16,WUHU216HW,2013-01-31 17:30:00,
2013-01-31 12:31:00,66.2,58.3,30.29,North,0,7.1,7.1,76,0.00,,,0.16,WUHU216HW,2013-01-31 17:31:00,
2013-01-31 12:32:00,66.3,58.1,30.29,NNW,338,1.3,7.1,75,0.00,,,0.16,WUHU216HW,2013-01-31 17:32:00,
2013-01-31 12:36:00,66.5,58.5,30.28,NNE,23,3.1,8.9,75,0.00,,,0.16,WUHU216HW,2013-01-31 17:36:00,
2013-01-31 12:37:00,66.7,58.5,30.28,North,0,0.0,8.9,75,0.00,,,0.16,WUHU216HW,2013-01-31 17:37:00,
2013-01-31 12:38:00,66.7,58.5,30.28,North,0,0.0,8.9,75,0.00,,,0.16,WUHU216HW,2013-01-31 17:38:00,
2013-01-31 12:42:00,66.7,58.5,30.28,NNW,345,3.8,8.9,75,0.00,,,0.16,WUHU216HW,2013-01-31 17:42:00,
2013-01-31 12:43:00,66.9,58.7,30.28,NNE,23,5.3,8.9,75,0.00,,,0.16,WUHU216HW,2013-01-31 17:43:00,
2013-01-31 12:44:00,66.9,58.7,30.28,NNE,23,5.3,8.9,75,0.00,,,0.16,WUHU216HW,2013-01-31 17:44:00,
2013-01-31 12:47:00,66.9,58.3,30.28,NE,45,5.3,6.4,74,0.00,,,0.16,WUHU216HW,2013-01-31 17:47:00,
2013-01-31 12:48:00,66.9,58.3,30.28,NE,41,3.0,6.4,74,0.00,,,0.16,WUHU216HW,2013-01-31 17:48:00,
2013-01-31 12:49:00,66.9,58.3,30.28,North,0,5.1,6.4,74,0.00,,,0.16,WUHU216HW,2013-01-31 17:49:00,
2013-01-31 12:52:00,66.9,58.3,30.28,North,0,4.4,6.0,74,0.00,,,0.16,WUHU216HW,2013-01-31 17:52:00,
2013-01-31 12:54:00,66.9,58.3,30.28,North,0,4.4,6.0,74,0.00,,,0.16,WUHU216HW,2013-01-31 17:54:00,
2013-01-31 12:56:00,66.9,58.3,30.28,NW,315,0.0,5.3,74,0.00,,,0.16,WUHU216HW,2013-01-31 17:56:00,
2013-01-31 12:57:00,67.1,58.1,30.28,North,0,5.5,5.5,73,0.00,,,0.16,WUHU216HW,2013-01-31 17:57:00,
2013-01-31 12:59:00,67.1,58.1,30.28,North,0,4.4,5.5,73,0.00,,,0.16,WUHU216HW,2013-01-31 17:59:00,
2013-01-31 13:01:00,67.1,58.1,30.27,NNE,23,0.0,5.5,73,0.00,,,0.16,WUHU216HW,2013-01-31 18:01:00,
2013-01-31 13:03:00,67.1,58.1,30.27,NNE,23,0.0,5.5,73,0.00,,,0.16,WUHU216HW,2013-01-31 18:03:00,
2013-01-31 13:04:00,67.1,58.1,30.27,North,0,0.8,5.5,73,0.00,,,0.16,WUHU216HW,2013-01-31 18:04:00,
2013-01-31 13:06:00,67.1,58.1,30.27,NNE,23,7.3,7.3,73,0.00,,,0.16,WUHU216HW,2013-01-31 18:06:00,
2013-01-31 13:08:00,67.1,58.1,30.27,NNE,23,3.3,7.3,73,0.00,,,0.16,WUHU216HW,2013-01-31 18:08:00,
2013-01-31 13:10:00,67.2,58.1,30.27,NW,315,3.3,7.3,73,0.00,,,0.16,WUHU216HW,2013-01-31 18:10:00,
2013-01-31 13:11:00,67.1,57.7,30.27,NW,315,3.5,7.3,72,0.00,,,0.16,WUHU216HW,2013-01-31 18:11:00,
2013-01-31 13:13:00,67.2,57.9,30.27,NNE,23,9.1,9.1,72,0.00,,,0.16,WUHU216HW,2013-01-31 18:13:00,
2013-01-31 13:15:00,67.2,57.9,30.27,NE,34,6.2,9.1,72,0.00,,,0.16,WUHU216HW,2013-01-31 18:15:00,
2013-01-31 13:16:00,67.2,57.9,30.27,NW,315,2.9,9.1,72,0.00,,,0.16,WUHU216HW,2013-01-31 18:16:00,
2013-01-31 13:19:00,67.2,57.9,30.27,North,4,3.8,9.1,72,0.00,,,0.16,WUHU216HW,2013-01-31 18:19:00,
2013-01-31 13:20:00,67.2,57.9,30.26,NNE,13,3.8,9.1,72,0.00,,,0.16,WUHU216HW,2013-01-31 18:20:00,
2013-01-31 13:22:00,67.2,57.9,30.26,North,0,5.1,9.1,72,0.00,,,0.16,WUHU216HW,2013-01-31 18:22:00,
2013-01-31 13:23:00,67.2,58.1,30.27,NE,45,7.8,9.1,72,0.00,,,0.16,WUHU216HW,2013-01-31 18:23:00,
2013-01-31 13:24:00,67.6,57.7,30.26,North,0,4.6,7.8,71,0.00,,,0.16,WUHU216HW,2013-01-31 18:24:00,
2013-01-31 13:26:00,67.6,57.9,30.26,East,90,2.9,7.8,71,0.00,,,0.16,WUHU216HW,2013-01-31 18:26:00,
2013-01-31 13:27:00,67.6,57.9,30.26,NE,45,5.3,7.8,71,0.00,,,0.16,WUHU216HW,2013-01-31 18:27:00,
2013-01-31 13:28:00,67.6,57.5,30.26,NE,49,2.9,7.8,70,0.00,,,0.16,WUHU216HW,2013-01-31 18:28:00,
2013-01-31 13:29:00,67.6,57.5,30.26,ESE,113,0.4,7.8,70,0.00,,,0.16,WUHU216HW,2013-01-31 18:29:00,
2013-01-31 13:32:00,67.8,57.7,30.26,NE,45,3.5,5.3,70,0.00,,,0.16,WUHU216HW,2013-01-31 18:32:00,
2013-01-31 13:34:00,67.8,57.7,30.26,NE,45,2.6,5.3,70,0.00,,,0.16,WUHU216HW,2013-01-31 18:34:00,
2013-01-31 13:35:00,67.8,57.7,30.26,NNE,23,0.0,5.3,70,0.00,,,0.16,WUHU216HW,2013-01-31 18:35:00,
2013-01-31 13:37:00,67.8,57.7,30.26,NE,45,2.9,4.4,70,0.00,,,0.16,WUHU216HW,2013-01-31 18:37:00,
2013-01-31 13:39:00,68.0,57.9,30.26,NNE,23,2.8,4.4,70,0.00,,,0.16,WUHU216HW,2013-01-31 18:39:00,
2013-01-31 13:40:00,68.1,57.6,30.26,NNE,13,1.5,4.4,69,0.00,,,0.16,WUHU216HW,2013-01-31 18:40:00,
2013-01-31 13:43:00,68.1,57.6,30.26,NE,45,2.4,5.5,69,0.00,,,0.16,WUHU216HW,2013-01-31 18:43:00,
2013-01-31 13:44:00,68.1,57.6,30.25,NE,45,3.3,5.5,69,0.00,,,0.16,WUHU216HW,2013-01-31 18:44:00,
2013-01-31 13:46:00,68.1,57.6,30.26,NNW,338,2.4,5.5,69,0.00,,,0.16,WUHU216HW,2013-01-31 18:46:00,
2013-01-31 13:48:00,68.3,57.3,30.26,NW,315,4.2,5.5,68,0.00,,,0.16,WUHU216HW,2013-01-31 18:48:00,
2013-01-31 13:49:00,68.3,56.9,30.25,NNW,338,0.0,5.5,67,0.00,,,0.16,WUHU216HW,2013-01-31 18:49:00,
2013-01-31 13:51:00,68.5,57.1,30.25,NNW,338,2.0,4.2,67,0.00,,,0.16,WUHU216HW,2013-01-31 18:51:00,
2013-01-31 13:54:00,68.7,57.2,30.25,North,0,4.0,4.2,67,0.00,,,0.16,WUHU216HW,2013-01-31 18:54:00,
2013-01-31 13:55:00,68.7,57.2,30.25,North,10,3.7,4.2,67,0.00,,,0.16,WUHU216HW,2013-01-31 18:55:00,
2013-01-31 13:57:00,68.7,56.8,30.26,NNE,23,3.3,4.2,66,0.00,,,0.16,WUHU216HW,2013-01-31 18:57:00,
2013-01-31 14:00:00,68.9,56.6,30.25,NE,35,3.8,4.4,65,0.00,,,0.16,WUHU216HW,2013-01-31 19:00:00,
2013-01-31 14:02:00,68.9,56.6,30.25,NNE,23,3.3,4.4,65,0.00,,,0.16,WUHU216HW,2013-01-31 19:02:00,
2013-01-31 14:05:00,69.0,56.3,30.25,NNW,339,5.3,7.3,64,0.00,,,0.16,WUHU216HW,2013-01-31 19:05:00,
2013-01-31 14:06:00,69.0,56.3,30.25,NNW,339,5.3,7.3,64,0.00,,,0.16,WUHU216HW,2013-01-31 19:06:00,
2013-01-31 14:07:00,69.0,56.3,30.25,NNE,23,8.2,8.2,64,0.00,,,0.16,WUHU216HW,2013-01-31 19:07:00,
2013-01-31 14:08:00,69.0,55.9,30.25,NNW,338,2.6,8.2,63,0.00,,,0.16,WUHU216HW,2013-01-31 19:08:00,
2013-01-31 14:10:00,69.4,56.1,30.25,NNE,14,8.4,10.0,63,0.00,,,0.16,WUHU216HW,2013-01-31 19:10:00,
2013-01-31 14:11:00,69.2,56.1,30.25,North,4,4.2,10.0,63,0.00,,,0.16,WUHU216HW,2013-01-31 19:11:00,
2013-01-31 14:13:00,69.4,56.2,30.25,NE,45,2.9,10.0,63,0.00,,,0.16,WUHU216HW,2013-01-31 19:13:00,
2013-01-31 14:16:00,69.4,56.4,30.26,ENE,68,6.7,10.0,63,0.00,,,0.16,WUHU216HW,2013-01-31 19:16:00,
2013-01-31 14:18:00,69.6,56.0,30.25,NE,45,3.1,10.0,62,0.00,,,0.16,WUHU216HW,2013-01-31 19:18:00,
2013-01-31 14:19:00,69.6,56.0,30.25,NE,45,3.1,10.0,62,0.00,,,0.16,WUHU216HW,2013-01-31 19:19:00,
2013-01-31 14:21:00,69.6,55.6,30.25,NE,40,5.1,6.7,61,0.00,,,0.16,WUHU216HW,2013-01-31 19:21:00,
2013-01-31 14:22:00,69.8,56.2,30.25,ENE,58,3.5,6.7,62,0.00,,,0.16,WUHU216HW,2013-01-31 19:22:00,
2013-01-31 14:23:00,69.8,56.2,30.25,NE,37,2.4,6.7,62,0.00,,,0.16,WUHU216HW,2013-01-31 19:23:00,
2013-01-31 14:24:00,69.8,56.2,30.25,North,0,3.8,6.2,62,0.00,,,0.16,WUHU216HW,2013-01-31 19:24:00,
2013-01-31 14:28:00,69.9,55.9,30.25,NNE,32,4.6,6.7,61,0.00,,,0.16,WUHU216HW,2013-01-31 19:28:00,
2013-01-31 14:29:00,69.9,55.9,30.25,NE,40,3.5,6.7,61,0.00,,,0.16,WUHU216HW,2013-01-31 19:29:00,
2013-01-31 14:34:00,69.9,55.5,30.25,NNW,345,3.1,6.7,60,0.00,,,0.16,WUHU216HW,2013-01-31 19:34:00,
2013-01-31 14:35:00,69.9,55.5,30.25,North,0,2.2,6.7,60,0.00,,,0.16,WUHU216HW,2013-01-31 19:35:00,
2013-01-31 14:36:00,69.9,55.5,30.25,North,0,0.4,6.7,60,0.00,,,0.16,WUHU216HW,2013-01-31 19:36:00,
2013-01-31 14:39:00,69.9,55.5,30.25,WSW,248,6.7,6.7,60,0.00,,,0.16,WUHU216HW,2013-01-31 19:39:00,
2013-01-31 14:40:00,69.9,55.5,30.25,WSW,248,5.1,6.7,60,0.00,,,0.16,WUHU216HW,2013-01-31 19:40:00,
2013-01-31 14:41:00,70.1,55.7,30.26,North,0,3.1,6.7,60,0.00,,,0.16,WUHU216HW,2013-01-31 19:41:00,
2013-01-31 14:44:00,69.9,55.0,30.26,North,0,12.5,12.5,59,0.00,,,0.16,WUHU216HW,2013-01-31 19:44:00,
2013-01-31 14:45:00,69.9,55.0,30.26,North,0,8.3,12.5,59,0.00,,,0.16,WUHU216HW,2013-01-31 19:45:00,
2013-01-31 14:46:00,70.1,54.7,30.26,WNW,303,7.7,12.5,58,0.00,,,0.16,WUHU216HW,2013-01-31 19:46:00,
2013-01-31 14:49:00,70.1,54.7,30.26,North,0,3.5,12.5,58,0.00,,,0.16,WUHU216HW,2013-01-31 19:49:00,
2013-01-31 14:50:00,70.1,54.7,30.26,North,0,6.9,12.5,58,0.00,,,0.16,WUHU216HW,2013-01-31 19:50:00,
2013-01-31 14:52:00,70.1,54.7,30.26,North,0,4.0,12.5,58,0.00,,,0.16,WUHU216HW,2013-01-31 19:52:00,
2013-01-31 14:54:00,70.1,54.2,30.26,NE,45,3.3,7.8,57,0.00,,,0.16,WUHU216HW,2013-01-31 19:54:00,
2013-01-31 14:55:00,70.1,54.2,30.25,NNE,23,3.3,7.6,57,0.00,,,0.16,WUHU216HW,2013-01-31 19:55:00,
2013-01-31 14:56:00,70.1,54.2,30.25,NNE,23,3.3,7.6,57,0.00,,,0.16,WUHU216HW,2013-01-31 19:56:00,
2013-01-31 14:58:00,70.1,54.2,30.25,NNE,23,0.0,7.3,57,0.00,,,0.16,WUHU216HW,2013-01-31 19:58:00,
2013-01-31 14:59:00,69.9,54.0,30.25,NNW,338,8.7,8.7,57,0.00,,,0.16,WUHU216HW,2013-01-31 19:59:00,
2013-01-31 15:01:00,69.9,54.0,30.25,North,8,6.9,8.7,57,0.00,,,0.16,WUHU216HW,2013-01-31 20:01:00,
2013-01-31 15:02:00,70.1,54.2,30.25,North,0,3.3,8.7,57,0.00,,,0.16,WUHU216HW,2013-01-31 20:02:00,
2013-01-31 15:03:00,70.1,54.2,30.25,North,0,5.3,8.7,57,0.00,,,0.16,WUHU216HW,2013-01-31 20:03:00,
2013-01-31 15:04:00,70.1,54.2,30.25,North,0,3.3,8.7,57,0.00,,,0.16,WUHU216HW,2013-01-31 20:04:00,
2013-01-31 15:07:00,70.1,53.7,30.25,NNE,13,3.9,8.7,56,0.00,,,0.16,WUHU216HW,2013-01-31 20:07:00,
2013-01-31 15:09:00,70.1,53.7,30.25,NNE,12,2.3,8.7,56,0.00,,,0.16,WUHU216HW,2013-01-31 20:09:00,
2013-01-31 15:10:00,70.1,54.2,30.25,NNE,23,2.9,6.2,57,0.00,,,0.16,WUHU216HW,2013-01-31 20:10:00,
2013-01-31 15:12:00,70.1,53.7,30.25,NNE,31,4.3,6.2,56,0.00,,,0.16,WUHU216HW,2013-01-31 20:12:00,
2013-01-31 15:14:00,70.1,53.7,30.25,North,0,1.5,6.2,56,0.00,,,0.16,WUHU216HW,2013-01-31 20:14:00,
2013-01-31 15:15:00,70.1,53.7,30.26,NE,45,2.4,6.0,56,0.00,,,0.16,WUHU216HW,2013-01-31 20:15:00,
2013-01-31 15:17:00,70.1,53.2,30.26,North,0,5.8,7.3,55,0.00,,,0.16,WUHU216HW,2013-01-31 20:17:00,
2013-01-31 15:18:00,70.1,53.2,30.26,North,0,5.8,7.3,55,0.00,,,0.16,WUHU216HW,2013-01-31 20:18:00,
2013-01-31 15:20:00,69.9,53.0,30.26,NNW,338,3.8,7.3,54,0.00,,,0.16,WUHU216HW,2013-01-31 20:20:00,
2013-01-31 15:21:00,69.9,52.5,30.26,NNW,338,4.2,7.3,54,0.00,,,0.16,WUHU216HW,2013-01-31 20:21:00,
2013-01-31 15:23:00,69.9,52.5,30.26,NNW,343,5.9,8.7,54,0.00,,,0.16,WUHU216HW,2013-01-31 20:23:00,
2013-01-31 15:25:00,69.9,52.5,30.26,WSW,248,2.9,8.7,54,0.00,,,0.16,WUHU216HW,2013-01-31 20:25:00,
2013-01-31 15:26:00,69.9,52.5,30.26,WSW,248,7.3,8.7,54,0.00,,,0.16,WUHU216HW,2013-01-31 20:26:00,
2013-01-31 15:28:00,69.9,52.5,30.26,West,281,3.6,8.7,54,0.00,,,0.16,WUHU216HW,2013-01-31 20:28:00,
2013-01-31 15:29:00,69.9,52.5,30.26,WSW,248,2.9,8.7,54,0.00,,,0.16,WUHU216HW,2013-01-31 20:29:00,
2013-01-31 15:30:00,69.9,52.5,30.26,WSW,248,2.9,8.7,54,0.00,,,0.16,WUHU216HW,2013-01-31 20:30:00,
2013-01-31 15:34:00,70.1,52.7,30.26,NNE,23,4.2,7.3,54,0.00,,,0.16,WUHU216HW,2013-01-31 20:34:00,
2013-01-31 15:35:00,70.1,52.7,30.26,NE,45,4.6,7.3,54,0.00,,,0.16,WUHU216HW,2013-01-31 20:35:00,
2013-01-31 15:39:00,70.1,51.6,30.26,NE,45,5.8,10.5,52,0.00,,,0.16,WUHU216HW,2013-01-31 20:39:00,
2013-01-31 15:40:00,70.1,51.6,30.26,North,0,2.4,10.5,52,0.00,,,0.16,WUHU216HW,2013-01-31 20:40:00,
2013-01-31 15:42:00,70.1,51.6,30.26,WSW,248,5.1,10.5,52,0.00,,,0.16,WUHU216HW,2013-01-31 20:42:00,
2013-01-31 15:45:00,69.9,51.0,30.26,WSW,248,4.1,10.5,51,0.00,,,0.16,WUHU216HW,2013-01-31 20:45:00,
2013-01-31 15:46:00,69.9,51.0,30.26,WSW,248,6.7,10.5,51,0.00,,,0.16,WUHU216HW,2013-01-31 20:46:00,
2013-01-31 15:47:00,69.9,51.0,30.26,WSW,248,6.7,10.5,51,0.00,,,0.16,WUHU216HW,2013-01-31 20:47:00,
2013-01-31 15:48:00,69.9,51.0,30.26,WSW,248,5.6,6.7,51,0.00,,,0.16,WUHU216HW,2013-01-31 20:48:00,
2013-01-31 15:51:00,69.9,50.5,30.26,WSW,248,5.3,6.7,51,0.00,,,0.16,WUHU216HW,2013-01-31 20:51:00,
2013-01-31 15:52:00,69.9,50.5,30.26,WSW,248,11.1,11.1,50,0.00,,,0.16,WUHU216HW,2013-01-31 20:52:00,
2013-01-31 15:53:00,69.9,50.5,30.26,WSW,248,8.6,11.1,50,0.00,,,0.16,WUHU216HW,2013-01-31 20:53:00,
2013-01-31 15:56:00,69.9,49.9,30.26,WSW,248,5.3,11.1,49,0.00,,,0.16,WUHU216HW,2013-01-31 20:56:00,
2013-01-31 15:57:00,69.9,49.9,30.26,WSW,248,5.3,11.1,49,0.00,,,0.16,WUHU216HW,2013-01-31 20:57:00,
2013-01-31 15:59:00,69.8,49.1,30.26,WSW,248,3.5,11.1,48,0.00,,,0.16,WUHU216HW,2013-01-31 20:59:00,
2013-01-31 16:02:00,69.8,49.1,30.26,WSW,248,5.6,8.9,48,0.00,,,0.16,WUHU216HW,2013-01-31 21:02:00,
2013-01-31 16:03:00,69.6,48.4,30.26,WSW,248,2.6,8.9,47,0.00,,,0.16,WUHU216HW,2013-01-31 21:03:00,
2013-01-31 16:05:00,69.6,48.4,30.27,WSW,248,6.0,8.7,47,0.00,,,0.16,WUHU216HW,2013-01-31 21:05:00,
2013-01-31 16:07:00,69.6,47.8,30.26,WSW,248,2.0,8.7,46,0.00,,,0.16,WUHU216HW,2013-01-31 21:07:00,
2013-01-31 16:08:00,69.6,47.8,30.26,WSW,248,2.0,8.7,46,0.00,,,0.16,WUHU216HW,2013-01-31 21:08:00,
2013-01-31 16:10:00,69.6,48.4,30.26,WSW,248,4.8,8.5,47,0.00,,,0.16,WUHU216HW,2013-01-31 21:10:00,
2013-01-31 16:13:00,69.4,48.2,30.27,WSW,248,2.5,8.5,47,0.00,,,0.16,WUHU216HW,2013-01-31 21:13:00,
2013-01-31 16:14:00,69.4,47.6,30.27,WSW,248,5.3,8.5,46,0.00,,,0.16,WUHU216HW,2013-01-31 21:14:00,
2013-01-31 16:17:00,69.4,47.6,30.27,WSW,248,9.3,9.3,46,0.00,,,0.16,WUHU216HW,2013-01-31 21:17:00,
2013-01-31 16:18:00,69.2,46.9,30.27,WSW,248,5.4,9.3,45,0.00,,,0.16,WUHU216HW,2013-01-31 21:18:00,
2013-01-31 16:19:00,69.2,46.9,30.27,WSW,248,5.4,9.3,45,0.00,,,0.16,WUHU216HW,2013-01-31 21:19:00,
2013-01-31 16:22:00,69.0,46.7,30.27,NNW,338,8.5,9.3,45,0.00,,,0.16,WUHU216HW,2013-01-31 21:22:00,
2013-01-31 16:24:00,69.0,47.3,30.28,WSW,254,4.3,9.3,46,0.00,,,0.16,WUHU216HW,2013-01-31 21:24:00,
2013-01-31 16:25:00,69.0,47.3,30.28,WSW,254,4.3,9.3,46,0.00,,,0.16,WUHU216HW,2013-01-31 21:25:00,
2013-01-31 16:27:00,68.9,47.7,30.27,WSW,248,1.9,8.5,47,0.00,,,0.16,WUHU216HW,2013-01-31 21:27:00,
2013-01-31 16:29:00,68.9,47.7,30.28,WSW,248,12.7,12.7,47,0.00,,,0.16,WUHU216HW,2013-01-31 21:29:00,
2013-01-31 16:30:00,68.9,47.7,30.28,WSW,248,12.7,12.7,47,0.00,,,0.16,WUHU216HW,2013-01-31 21:30:00,
2013-01-31 16:33:00,68.7,47.6,30.27,WSW,248,3.3,12.7,47,0.00,,,0.16,WUHU216HW,2013-01-31 21:33:00,
2013-01-31 16:35:00,68.7,47.6,30.27,WSW,248,6.2,12.7,47,0.00,,,0.16,WUHU216HW,2013-01-31 21:35:00,
2013-01-31 16:36:00,68.7,48.2,30.28,WSW,248,6.2,12.7,48,0.00,,,0.16,WUHU216HW,2013-01-31 21:36:00,
2013-01-31 16:39:00,68.5,47.4,30.28,WSW,248,5.3,12.7,47,0.00,,,0.16,WUHU216HW,2013-01-31 21:39:00,
2013-01-31 16:40:00,68.5,47.4,30.28,WSW,248,5.1,8.7,47,0.00,,,0.16,WUHU216HW,2013-01-31 21:40:00,
2013-01-31 16:41:00,68.3,48.0,30.28,WSW,248,4.4,6.4,48,0.00,,,0.16,WUHU216HW,2013-01-31 21:41:00,
2013-01-31 16:45:00,68.3,47.8,30.28,WSW,248,7.3,11.6,48,0.00,,,0.16,WUHU216HW,2013-01-31 21:45:00,
2013-01-31 16:46:00,68.1,47.7,30.28,NNW,338,8.2,11.6,48,0.00,,,0.16,WUHU216HW,2013-01-31 21:46:00,
2013-01-31 16:47:00,68.1,47.1,30.28,North,353,6.4,11.6,47,0.00,,,0.16,WUHU216HW,2013-01-31 21:47:00,
2013-01-31 16:50:00,68.1,47.1,30.28,NE,45,3.5,11.6,47,0.00,,,0.16,WUHU216HW,2013-01-31 21:50:00,
2013-01-31 16:52:00,67.8,47.3,30.28,NNE,23,4.6,11.6,48,0.00,,,0.16,WUHU216HW,2013-01-31 21:52:00,
2013-01-31 16:55:00,67.8,47.3,30.28,NNE,23,9.1,9.1,48,0.00,,,0.16,WUHU216HW,2013-01-31 21:55:00,
2013-01-31 16:57:00,67.8,46.7,30.28,NNE,23,6.0,9.1,47,0.00,,,0.16,WUHU216HW,2013-01-31 21:57:00,
2013-01-31 17:00:00,67.6,46.6,30.28,North,0,4.4,9.1,47,0.00,,,0.16,WUHU216HW,2013-01-31 22:00:00,
2013-01-31 17:02:00,67.2,45.7,30.28,NE,37,3.5,9.1,46,0.00,,,0.16,WUHU216HW,2013-01-31 22:02:00,
2013-01-31 17:03:00,67.2,45.7,30.28,NE,45,4.6,9.1,46,0.00,,,0.16,WUHU216HW,2013-01-31 22:03:00,
2013-01-31 17:05:00,67.2,45.7,30.28,NNE,23,6.0,6.2,46,0.00,,,0.16,WUHU216HW,2013-01-31 22:05:00,
2013-01-31 17:07:00,67.1,45.5,30.29,North,0,1.1,6.2,46,0.00,,,0.16,WUHU216HW,2013-01-31 22:07:00,
2013-01-31 17:08:00,66.9,45.3,30.29,NNE,23,2.9,6.0,46,0.00,,,0.16,WUHU216HW,2013-01-31 22:08:00,
2013-01-31 17:12:00,66.7,45.2,30.29,NNE,23,6.9,6.9,46,0.00,,,0.16,WUHU216HW,2013-01-31 22:12:00,
2013-01-31 17:13:00,66.7,45.2,30.29,North,4,6.0,6.9,46,0.00,,,0.16,WUHU216HW,2013-01-31 22:13:00,
2013-01-31 17:14:00,66.7,44.6,30.29,NNW,348,4.8,6.9,45,0.00,,,0.16,WUHU216HW,2013-01-31 22:14:00,
2013-01-31 17:17:00,66.3,44.3,30.29,NNE,23,4.9,6.9,45,0.00,,,0.16,WUHU216HW,2013-01-31 22:17:00,
2013-01-31 17:18:00,66.3,44.3,30.29,NNE,23,4.9,6.9,45,0.00,,,0.16,WUHU216HW,2013-01-31 22:18:00,
2013-01-31 17:19:00,66.3,44.3,30.29,North,0,2.0,6.9,45,0.00,,,0.16,WUHU216HW,2013-01-31 22:19:00,
2013-01-31 17:22:00,66.0,43.9,30.29,NNE,23,6.4,6.4,45,0.00,,,0.16,WUHU216HW,2013-01-31 22:22:00,
2013-01-31 17:23:00,66.0,43.9,30.29,NNE,16,4.5,6.4,45,0.00,,,0.16,WUHU216HW,2013-01-31 22:23:00,
2013-01-31 17:25:00,66.0,43.9,30.29,NNE,23,3.5,6.4,45,0.00,,,0.16,WUHU216HW,2013-01-31 22:25:00,
2013-01-31 17:27:00,66.0,43.9,30.29,NNE,23,2.4,6.4,45,0.00,,,0.16,WUHU216HW,2013-01-31 22:27:00,
2013-01-31 17:28:00,65.8,43.8,30.29,NNE,14,2.0,6.4,45,0.00,,,0.16,WUHU216HW,2013-01-31 22:28:00,
2013-01-31 17:30:00,65.8,43.8,30.29,North,0,2.2,6.4,45,0.00,,,0.16,WUHU216HW,2013-01-31 22:30:00,
2013-01-31 17:31:00,65.8,43.8,30.29,North,0,3.1,6.4,45,0.00,,,0.16,WUHU216HW,2013-01-31 22:31:00,
2013-01-31 17:33:00,65.6,44.2,30.29,North,0,5.8,5.8,46,0.00,,,0.16,WUHU216HW,2013-01-31 22:33:00,
2013-01-31 17:35:00,65.4,44.0,30.29,NNE,13,4.7,5.8,46,0.00,,,0.16,WUHU216HW,2013-01-31 22:35:00,
2013-01-31 17:36:00,65.4,44.0,30.30,North,0,4.0,5.8,46,0.00,,,0.16,WUHU216HW,2013-01-31 22:36:00,
2013-01-31 17:38:00,65.4,43.4,30.30,North,353,1.9,5.8,45,0.00,,,0.16,WUHU216HW,2013-01-31 22:38:00,
2013-01-31 17:40:00,65.3,43.2,30.30,NNE,23,0.8,5.8,45,0.00,,,0.16,WUHU216HW,2013-01-31 22:40:00,
2013-01-31 17:41:00,65.1,43.1,30.30,NNE,23,3.5,5.8,45,0.00,,,0.16,WUHU216HW,2013-01-31 22:41:00,
2013-01-31 17:44:00,65.1,43.1,30.30,NNW,338,4.6,5.3,45,0.00,,,0.16,WUHU216HW,2013-01-31 22:44:00,
2013-01-31 17:45:00,65.1,43.1,30.30,NNE,23,3.1,4.6,45,0.00,,,0.16,WUHU216HW,2013-01-31 22:45:00,
2013-01-31 17:47:00,64.9,42.9,30.30,NE,45,2.2,4.6,45,0.00,,,0.16,WUHU216HW,2013-01-31 22:47:00,
2013-01-31 17:49:00,64.7,42.7,30.31,NNE,30,4.6,6.0,45,0.00,,,0.16,WUHU216HW,2013-01-31 22:49:00,
2013-01-31 17:50:00,64.7,42.7,30.30,NNE,23,3.1,6.0,45,0.00,,,0.16,WUHU216HW,2013-01-31 22:50:00,
2013-01-31 17:51:00,64.7,42.7,30.30,NNE,23,3.1,6.0,45,0.00,,,0.16,WUHU216HW,2013-01-31 22:51:00,
2013-01-31 17:53:00,64.5,42.6,30.30,NNE,23,5.3,7.1,45,0.00,,,0.16,WUHU216HW,2013-01-31 22:53:00,
2013-01-31 17:55:00,64.4,42.4,30.30,NNE,23,6.2,7.1,45,0.00,,,0.16,WUHU216HW,2013-01-31 22:55:00,
2013-01-31 17:56:00,64.2,42.2,30.30,NNE,23,6.2,7.1,45,0.00,,,0.16,WUHU216HW,2013-01-31 22:56:00,
2013-01-31 17:58:00,64.2,42.2,30.30,NNE,23,4.8,7.1,45,0.00,,,0.16,WUHU216HW,2013-01-31 22:58:00,
2013-01-31 18:01:00,64.0,41.5,30.30,NNE,32,3.9,7.1,44,0.00,,,0.16,WUHU216HW,2013-01-31 23:01:00,
2013-01-31 18:03:00,63.6,41.3,30.30,NNE,23,4.2,6.4,44,0.00,,,0.16,WUHU216HW,2013-01-31 23:03:00,
2013-01-31 18:06:00,63.6,41.2,30.30,NNE,23,3.3,9.6,44,0.00,,,0.16,WUHU216HW,2013-01-31 23:06:00,
2013-01-31 18:07:00,63.5,41.0,30.30,NNE,31,2.8,9.6,44,0.00,,,0.16,WUHU216HW,2013-01-31 23:07:00,
2013-01-31 18:09:00,63.5,41.0,30.30,NNE,23,2.2,9.6,44,0.00,,,0.16,WUHU216HW,2013-01-31 23:09:00,
2013-01-31 18:10:00,63.3,40.8,30.30,NNE,23,2.2,9.6,44,0.00,,,0.16,WUHU216HW,2013-01-31 23:10:00,
2013-01-31 18:11:00,63.3,40.8,30.30,NNE,23,3.5,9.6,44,0.00,,,0.16,WUHU216HW,2013-01-31 23:11:00,
2013-01-31 18:12:00,63.3,40.8,30.30,NNE,23,3.5,9.6,44,0.00,,,0.16,WUHU216HW,2013-01-31 23:12:00,
2013-01-31 18:14:00,63.1,40.7,30.30,NNE,23,0.6,9.6,44,0.00,,,0.16,WUHU216HW,2013-01-31 23:14:00,
2013-01-31 18:15:00,63.1,40.7,30.30,NNE,23,6.0,6.0,44,0.00,,,0.16,WUHU216HW,2013-01-31 23:15:00,
2013-01-31 18:18:00,62.9,39.9,30.30,NNW,342,2.8,6.0,43,0.00,,,0.16,WUHU216HW,2013-01-31 23:18:00,
2013-01-31 18:19:00,62.9,39.9,30.30,North,0,1.1,6.0,43,0.00,,,0.16,WUHU216HW,2013-01-31 23:19:00,
2013-01-31 18:20:00,62.7,39.8,30.30,NNE,23,4.9,6.0,43,0.00,,,0.16,WUHU216HW,2013-01-31 23:20:00,
2013-01-31 18:23:00,62.4,39.5,30.30,North,0,5.3,6.0,43,0.00,,,0.16,WUHU216HW,2013-01-31 23:23:00,
2013-01-31 18:24:00,62.4,39.5,30.30,NNE,23,2.8,6.0,43,0.00,,,0.16,WUHU216HW,2013-01-31 23:24:00,
2013-01-31 18:25:00,62.4,39.5,30.30,NNE,23,2.6,5.8,43,0.00,,,0.16,WUHU216HW,2013-01-31 23:25:00,
2013-01-31 18:27:00,62.2,39.9,30.30,North,0,1.7,5.8,44,0.00,,,0.16,WUHU216HW,2013-01-31 23:27:00,
2013-01-31 18:28:00,62.2,39.9,30.30,NNE,23,5.1,5.8,44,0.00,,,0.16,WUHU216HW,2013-01-31 23:28:00,
2013-01-31 18:30:00,62.2,39.3,30.30,NNE,13,4.3,5.3,43,0.00,,,0.16,WUHU216HW,2013-01-31 23:30:00,
2013-01-31 18:33:00,61.8,39.5,30.30,North,0,3.8,9.8,44,0.00,,,0.16,WUHU216HW,2013-01-31 23:33:00,
2013-01-31 18:35:00,61.8,39.5,30.31,North,4,2.3,9.8,44,0.00,,,0.16,WUHU216HW,2013-01-31 23:35:00,
2013-01-31 18:36:00,61.7,39.4,30.31,NNE,23,0.8,9.8,44,0.00,,,0.16,WUHU216HW,2013-01-31 23:36:00,
2013-01-31 18:40:00,61.5,39.2,30.31,NNE,23,3.5,9.8,44,0.00,,,0.16,WUHU216HW,2013-01-31 23:40:00,
2013-01-31 18:41:00,61.5,39.2,30.31,NNE,23,1.1,3.8,44,0.00,,,0.16,WUHU216HW,2013-01-31 23:41:00,
2013-01-31 18:45:00,61.3,39.6,30.31,NNE,23,3.3,4.0,45,0.00,,,0.16,WUHU216HW,2013-01-31 23:45:00,
2013-01-31 18:47:00,61.1,39.5,30.31,NNE,23,2.0,4.0,45,0.00,,,0.16,WUHU216HW,2013-01-31 23:47:00,
2013-01-31 18:48:00,61.1,39.5,30.31,NNE,23,0.8,4.0,45,0.00,,,0.16,WUHU216HW,2013-01-31 23:48:00,
2013-01-31 18:51:00,60.9,39.3,30.31,NNE,23,2.0,4.0,45,0.00,,,0.16,WUHU216HW,2013-01-31 23:51:00,
2013-01-31 18:52:00,60.9,39.3,30.31,North,0,3.3,4.0,45,0.00,,,0.16,WUHU216HW,2013-01-31 23:52:00,
2013-01-31 18:55:00,60.9,39.9,30.31,North,0,2.4,3.3,46,0.00,,,0.16,WUHU216HW,2013-01-31 23:55:00,
2013-01-31 18:56:00,60.6,39.7,30.32,North,0,1.7,3.3,46,0.00,,,0.16,WUHU216HW,2013-01-31 23:56:00,
2013-01-31 18:57:00,60.6,39.6,30.32,North,0,0.0,3.3,46,0.00,,,0.16,WUHU216HW,2013-01-31 23:57:00,
2013-01-31 19:00:00,60.6,39.6,30.31,NNE,23,4.4,4.4,46,0.00,,,0.16,WUHU216HW,2013-02-01 00:00:00,
2013-01-31 19:02:00,60.6,39.6,30.32,NW,315,1.5,4.4,46,0.00,,,0.16,WUHU216HW,2013-02-01 00:02:00,
2013-01-31 19:03:00,60.4,39.4,30.32,North,0,0.0,4.4,46,0.00,,,0.16,WUHU216HW,2013-02-01 00:03:00,
2013-01-31 19:05:00,60.4,39.4,30.32,NE,34,2.8,4.4,46,0.00,,,0.16,WUHU216HW,2013-02-01 00:05:00,
2013-01-31 19:07:00,60.4,39.4,30.32,North,11,2.5,4.4,46,0.00,,,0.16,WUHU216HW,2013-02-01 00:07:00,
2013-01-31 19:08:00,60.0,39.2,30.32,NNW,338,1.2,4.4,46,0.00,,,0.16,WUHU216HW,2013-02-01 00:08:00,
2013-01-31 19:09:00,60.0,39.1,30.32,NNW,338,2.6,3.8,46,0.00,,,0.16,WUHU216HW,2013-02-01 00:09:00,
2013-01-31 19:10:00,60.0,39.1,30.32,NNW,338,3.5,3.8,46,0.00,,,0.16,WUHU216HW,2013-02-01 00:10:00,
2013-01-31 19:13:00,59.9,38.9,30.32,North,0,2.4,3.8,46,0.00,,,0.16,WUHU216HW,2013-02-01 00:13:00,
2013-01-31 19:14:00,59.9,38.9,30.32,North,0,6.4,6.4,46,0.00,,,0.16,WUHU216HW,2013-02-01 00:14:00,
2013-01-31 19:15:00,59.9,38.9,30.32,North,0,6.4,6.4,46,0.00,,,0.16,WUHU216HW,2013-02-01 00:15:00,
2013-01-31 19:16:00,59.9,38.9,30.33,North,11,6.1,6.4,46,0.00,,,0.16,WUHU216HW,2013-02-01 00:16:00,
2013-01-31 19:19:00,59.7,38.8,30.33,North,8,1.1,6.4,46,0.00,,,0.16,WUHU216HW,2013-02-01 00:19:00,
2013-01-31 19:20:00,59.5,38.6,30.33,North,0,3.3,6.4,46,0.00,,,0.16,WUHU216HW,2013-02-01 00:20:00,
2013-01-31 19:21:00,59.5,38.6,30.33,NNE,23,5.5,6.4,46,0.00,,,0.16,WUHU216HW,2013-02-01 00:21:00,
2013-01-31 19:24:00,59.3,38.4,30.33,NNE,23,0.0,5.8,46,0.00,,,0.16,WUHU216HW,2013-02-01 00:24:00,
2013-01-31 19:26:00,59.1,38.8,30.33,North,7,2.2,5.5,47,0.00,,,0.16,WUHU216HW,2013-02-01 00:26:00,
2013-01-31 19:28:00,58.8,38.5,30.33,NNE,23,1.2,5.5,47,0.00,,,0.16,WUHU216HW,2013-02-01 00:28:00,
2013-01-31 19:29:00,58.8,38.5,30.33,NNE,23,2.4,5.5,47,0.00,,,0.16,WUHU216HW,2013-02-01 00:29:00,
2013-01-31 19:31:00,58.8,38.5,30.33,North,0,1.3,3.1,47,0.00,,,0.16,WUHU216HW,2013-02-01 00:31:00,
2013-01-31 19:32:00,58.8,38.5,30.33,North,0,1.3,3.1,47,0.00,,,0.16,WUHU216HW,2013-02-01 00:32:00,
2013-01-31 19:33:00,58.8,38.5,30.34,North,0,0.0,3.1,47,0.00,,,0.16,WUHU216HW,2013-02-01 00:33:00,
2013-01-31 19:35:00,58.8,38.5,30.34,North,0,0.0,3.1,47,0.00,,,0.16,WUHU216HW,2013-02-01 00:35:00,
2013-01-31 19:37:00,58.8,38.5,30.34,North,0,0.0,2.4,47,0.00,,,0.16,WUHU216HW,2013-02-01 00:37:00,
2013-01-31 19:38:00,58.8,39.1,30.34,North,0,0.0,2.4,48,0.00,,,0.16,WUHU216HW,2013-02-01 00:38:00,
2013-01-31 19:40:00,58.8,39.1,30.34,North,0,0.0,1.3,48,0.00,,,0.16,WUHU216HW,2013-02-01 00:40:00,
2013-01-31 19:42:00,58.8,39.1,30.34,North,0,0.0,0.0,48,0.00,,,0.16,WUHU216HW,2013-02-01 00:42:00,
2013-01-31 19:43:00,58.6,38.9,30.34,North,0,1.7,1.7,48,0.00,,,0.16,WUHU216HW,2013-02-01 00:43:00,
2013-01-31 19:46:00,58.6,38.9,30.34,North,0,1.3,1.7,48,0.00,,,0.16,WUHU216HW,2013-02-01 00:46:00,
2013-01-31 19:47:00,58.4,38.8,30.34,North,0,1.3,1.7,48,0.00,,,0.16,WUHU216HW,2013-02-01 00:47:00,
2013-01-31 19:49:00,58.4,38.6,30.34,North,0,0.0,1.7,48,0.00,,,0.16,WUHU216HW,2013-02-01 00:49:00,
2013-01-31 19:52:00,58.1,38.4,30.34,NE,45,1.1,1.5,48,0.00,,,0.16,WUHU216HW,2013-02-01 00:52:00,
2013-01-31 19:53:00,58.1,38.6,30.34,NNE,23,1.3,1.5,48,0.00,,,0.16,WUHU216HW,2013-02-01 00:53:00,
2013-01-31 19:55:00,58.1,38.4,30.34,NNE,23,1.7,1.7,48,0.00,,,0.16,WUHU216HW,2013-02-01 00:55:00,
2013-01-31 19:58:00,57.9,38.3,30.34,North,0,7.6,7.6,48,0.00,,,0.16,WUHU216HW,2013-02-01 00:58:00,
2013-01-31 20:00:00,57.7,38.1,30.34,North,0,2.2,7.6,48,0.00,,,0.16,WUHU216HW,2013-02-01 01:00:00,
2013-01-31 20:03:00,57.7,38.1,30.34,NNE,23,2.8,7.6,48,0.00,,,0.16,WUHU216HW,2013-02-01 01:03:00,
2013-01-31 20:04:00,57.5,38.0,30.34,NNE,23,4.0,7.6,48,0.00,,,0.16,WUHU216HW,2013-02-01 01:04:00,
2013-01-31 20:06:00,57.5,38.0,30.34,ENE,68,6.0,7.6,48,0.00,,,0.16,WUHU216HW,2013-02-01 01:06:00,
2013-01-31 20:08:00,57.3,37.8,30.35,North,0,2.4,7.3,48,0.00,,,0.16,WUHU216HW,2013-02-01 01:08:00,
2013-01-31 20:09:00,57.3,37.8,30.35,North,0,2.2,7.3,48,0.00,,,0.16,WUHU216HW,2013-02-01 01:09:00,
2013-01-31 20:10:00,57.3,37.8,30.35,North,0,2.2,7.3,48,0.00,,,0.16,WUHU216HW,2013-02-01 01:10:00,
2013-01-31 20:11:00,57.0,37.5,30.35,NNE,23,6.7,7.3,48,0.00,,,0.16,WUHU216HW,2013-02-01 01:11:00,
2013-01-31 20:14:00,57.0,37.5,30.35,NNE,23,4.4,7.3,48,0.00,,,0.16,WUHU216HW,2013-02-01 01:14:00,
2013-01-31 20:15:00,57.0,37.5,30.34,NNE,23,4.9,7.3,48,0.00,,,0.16,WUHU216HW,2013-02-01 01:15:00,
2013-01-31 20:16:00,57.0,37.5,30.34,NNE,23,4.9,6.7,48,0.00,,,0.16,WUHU216HW,2013-02-01 01:16:00,
2013-01-31 20:19:00,56.8,37.3,30.35,NNE,23,5.8,6.7,48,0.00,,,0.16,WUHU216HW,2013-02-01 01:19:00,
2013-01-31 20:21:00,56.8,37.3,30.35,NNE,23,5.8,6.7,48,0.00,,,0.16,WUHU216HW,2013-02-01 01:21:00,
2013-01-31 20:22:00,56.8,37.3,30.35,NW,315,2.2,5.8,48,0.00,,,0.16,WUHU216HW,2013-02-01 01:22:00,
2013-01-31 20:24:00,56.6,37.7,30.35,NW,315,1.3,5.8,49,0.00,,,0.16,WUHU216HW,2013-02-01 01:24:00,
2013-01-31 20:26:00,56.4,37.5,30.36,North,354,1.5,5.8,49,0.00,,,0.16,WUHU216HW,2013-02-01 01:26:00,
2013-01-31 20:27:00,56.4,37.5,30.36,NNE,23,0.6,5.8,49,0.00,,,0.16,WUHU216HW,2013-02-01 01:27:00,
2013-01-31 20:29:00,56.4,37.5,30.35,NNE,23,2.9,2.9,49,0.00,,,0.16,WUHU216HW,2013-02-01 01:29:00,
2013-01-31 20:31:00,56.4,37.5,30.35,NNE,23,3.8,3.8,49,0.00,,,0.16,WUHU216HW,2013-02-01 01:31:00,
2013-01-31 20:32:00,56.3,37.3,30.36,NNE,17,2.5,3.8,49,0.00,,,0.16,WUHU216HW,2013-02-01 01:32:00,
2013-01-31 20:35:00,56.3,37.3,30.35,NNE,23,2.4,4.0,49,0.00,,,0.16,WUHU216HW,2013-02-01 01:35:00,
2013-01-31 20:37:00,56.1,37.1,30.35,NNE,23,0.0,4.0,49,0.00,,,0.16,WUHU216HW,2013-02-01 01:37:00,
2013-01-31 20:38:00,56.1,37.1,30.35,NNE,23,0.0,4.0,49,0.00,,,0.16,WUHU216HW,2013-02-01 01:38:00,
2013-01-31 20:40:00,56.1,37.7,30.36,NNE,23,2.0,4.0,50,0.00,,,0.16,WUHU216HW,2013-02-01 01:40:00,
2013-01-31 20:43:00,56.1,37.7,30.36,NNE,23,3.3,4.0,50,0.00,,,0.16,WUHU216HW,2013-02-01 01:43:00,
2013-01-31 20:46:00,55.9,37.5,30.36,NNE,23,3.5,5.5,50,0.00,,,0.16,WUHU216HW,2013-02-01 01:46:00,
2013-01-31 20:48:00,55.9,37.5,30.36,North,0,2.9,5.5,50,0.00,,,0.16,WUHU216HW,2013-02-01 01:48:00,
2013-01-31 20:49:00,55.9,37.5,30.36,North,0,5.8,5.8,50,0.00,,,0.16,WUHU216HW,2013-02-01 01:49:00,
2013-01-31 20:52:00,55.9,37.5,30.36,NE,45,1.5,5.8,50,0.00,,,0.16,WUHU216HW,2013-02-01 01:52:00,
2013-01-31 20:53:00,55.9,37.5,30.36,NNE,23,3.5,5.8,50,0.00,,,0.16,WUHU216HW,2013-02-01 01:53:00,
2013-01-31 20:55:00,55.7,37.4,30.36,NNE,23,2.2,5.8,50,0.00,,,0.16,WUHU216HW,2013-02-01 01:55:00,
2013-01-31 20:57:00,55.7,37.4,30.36,North,352,2.8,5.8,50,0.00,,,0.16,WUHU216HW,2013-02-01 01:57:00,
2013-01-31 20:59:00,55.5,37.2,30.36,NNE,23,6.4,6.4,50,0.00,,,0.16,WUHU216HW,2013-02-01 01:59:00,
2013-01-31 21:00:00,55.5,37.2,30.36,North,9,4.7,6.4,50,0.00,,,0.16,WUHU216HW,2013-02-01 02:00:00,
2013-01-31 21:03:00,55.5,37.2,30.36,North,0,2.2,6.4,50,0.00,,,0.16,WUHU216HW,2013-02-01 02:03:00,
2013-01-31 21:05:00,55.4,37.0,30.36,NNE,23,2.9,6.4,50,0.00,,,0.16,WUHU216HW,2013-02-01 02:05:00,
2013-01-31 21:06:00,55.4,37.0,30.36,NNE,23,2.9,6.4,50,0.00,,,0.16,WUHU216HW,2013-02-01 02:06:00,
2013-01-31 21:07:00,55.4,37.0,30.36,NNE,23,0.8,6.4,50,0.00,,,0.16,WUHU216HW,2013-02-01 02:07:00,
2013-01-31 21:09:00,55.2,36.8,30.36,NNE,14,3.1,6.4,50,0.00,,,0.16,WUHU216HW,2013-02-01 02:09:00,
2013-01-31 21:11:00,55.2,36.8,30.36,North,4,1.6,3.8,50,0.00,,,0.16,WUHU216HW,2013-02-01 02:11:00,
2013-01-31 21:12:00,55.2,36.8,30.36,NE,45,6.4,6.4,50,0.00,,,0.16,WUHU216HW,2013-02-01 02:12:00,
2013-01-31 21:14:00,55.2,37.3,30.37,North,0,2.4,6.4,51,0.00,,,0.16,WUHU216HW,2013-02-01 02:14:00,
2013-01-31 21:16:00,55.0,37.1,30.37,NE,45,3.1,6.4,51,0.00,,,0.16,WUHU216HW,2013-02-01 02:16:00,
2013-01-31 21:17:00,55.0,37.1,30.37,NE,38,2.3,6.4,51,0.00,,,0.16,WUHU216HW,2013-02-01 02:17:00,
2013-01-31 21:20:00,55.0,37.1,30.37,North,0,4.6,6.4,51,0.00,,,0.16,WUHU216HW,2013-02-01 02:20:00,
2013-01-31 21:22:00,54.8,37.0,30.37,North,0,3.3,5.5,51,0.00,,,0.16,WUHU216HW,2013-02-01 02:22:00,
2013-01-31 21:23:00,54.8,37.0,30.37,North,0,5.1,5.5,51,0.00,,,0.16,WUHU216HW,2013-02-01 02:23:00,
2013-01-31 21:25:00,54.6,36.8,30.37,NW,315,5.1,5.5,51,0.00,,,0.16,WUHU216HW,2013-02-01 02:25:00,
2013-01-31 21:27:00,54.6,36.8,30.37,North,0,6.9,6.9,51,0.00,,,0.16,WUHU216HW,2013-02-01 02:27:00,
2013-01-31 21:28:00,54.6,36.8,30.37,North,0,4.8,6.9,51,0.00,,,0.16,WUHU216HW,2013-02-01 02:28:00,
2013-01-31 21:31:00,54.5,36.6,30.37,NNE,23,5.1,6.9,51,0.00,,,0.16,WUHU216HW,2013-02-01 02:31:00,
2013-01-31 21:33:00,54.5,36.6,30.37,North,0,2.7,6.9,51,0.00,,,0.16,WUHU216HW,2013-02-01 02:33:00,
2013-01-31 21:35:00,54.3,37.0,30.37,NE,41,2.3,6.9,52,0.00,,,0.16,WUHU216HW,2013-02-01 02:35:00,
2013-01-31 21:36:00,54.3,37.0,30.37,NE,41,2.3,6.9,52,0.00,,,0.16,WUHU216HW,2013-02-01 02:36:00,
2013-01-31 21:39:00,54.3,37.0,30.37,North,0,2.4,5.1,52,0.00,,,0.16,WUHU216HW,2013-02-01 02:39:00,
2013-01-31 21:41:00,54.3,37.0,30.37,North,0,3.1,3.8,52,0.00,,,0.16,WUHU216HW,2013-02-01 02:41:00,
2013-01-31 21:44:00,54.1,36.8,30.37,NNE,23,3.8,3.8,52,0.00,,,0.16,WUHU216HW,2013-02-01 02:44:00,
2013-01-31 21:46:00,54.1,37.3,30.36,NNE,23,0.8,3.8,53,0.00,,,0.16,WUHU216HW,2013-02-01 02:46:00,
2013-01-31 21:49:00,54.1,37.1,30.36,NNE,23,1.1,3.8,53,0.00,,,0.16,WUHU216HW,2013-02-01 02:49:00,
2013-01-31 21:50:00,53.9,37.1,30.36,NNE,23,1.1,3.8,53,0.00,,,0.16,WUHU216HW,2013-02-01 02:50:00,
2013-01-31 21:51:00,53.9,37.1,30.36,NNE,23,0.0,3.8,53,0.00,,,0.16,WUHU216HW,2013-02-01 02:51:00,
2013-01-31 21:54:00,53.7,36.9,30.36,NE,45,1.1,1.3,53,0.00,,,0.16,WUHU216HW,2013-02-01 02:54:00,
2013-01-31 21:55:00,53.7,36.9,30.36,NE,45,1.1,1.3,53,0.00,,,0.16,WUHU216HW,2013-02-01 02:55:00,
2013-01-31 21:56:00,53.7,36.9,30.37,NNE,23,0.0,1.3,53,0.00,,,0.16,WUHU216HW,2013-02-01 02:56:00,
2013-01-31 21:58:00,53.7,36.9,30.36,NNE,23,0.0,1.3,53,0.00,,,0.16,WUHU216HW,2013-02-01 02:58:00,
2013-01-31 22:00:00,53.7,36.9,30.36,NNE,23,0.6,1.3,53,0.00,,,0.16,WUHU216HW,2013-02-01 03:00:00,
2013-01-31 22:01:00,53.4,37.1,30.37,NNE,23,1.6,2.0,54,0.00,,,0.16,WUHU216HW,2013-02-01 03:01:00,
2013-01-31 22:05:00,53.4,37.1,30.37,NNE,23,2.0,2.0,54,0.00,,,0.16,WUHU216HW,2013-02-01 03:05:00,
2013-01-31 22:06:00,53.4,37.1,30.37,North,0,3.3,3.3,54,0.00,,,0.16,WUHU216HW,2013-02-01 03:06:00,
2013-01-31 22:07:00,53.4,37.1,30.37,North,0,3.3,3.3,54,0.00,,,0.16,WUHU216HW,2013-02-01 03:07:00,
2013-01-31 22:10:00,53.2,36.9,30.36,NNE,23,1.7,3.3,54,0.00,,,0.16,WUHU216HW,2013-02-01 03:10:00,
2013-01-31 22:12:00,53.2,36.9,30.36,NNE,23,1.5,3.3,54,0.00,,,0.16,WUHU216HW,2013-02-01 03:12:00,
2013-01-31 22:13:00,53.2,36.9,30.37,NNE,23,2.2,3.3,54,0.00,,,0.16,WUHU216HW,2013-02-01 03:13:00,
2013-01-31 22:16:00,53.2,36.7,30.37,NNE,17,1.6,3.3,54,0.00,,,0.16,WUHU216HW,2013-02-01 03:16:00,
2013-01-31 22:17:00,53.0,36.7,30.37,NNE,23,2.0,2.9,54,0.00,,,0.16,WUHU216HW,2013-02-01 03:17:00,
2013-01-31 22:18:00,52.8,36.6,30.37,NNE,23,3.8,3.8,54,0.00,,,0.16,WUHU216HW,2013-02-01 03:18:00,
2013-01-31 22:21:00,52.8,36.6,30.38,NE,45,2.6,3.8,54,0.00,,,0.16,WUHU216HW,2013-02-01 03:21:00,
2013-01-31 22:22:00,52.8,36.6,30.38,North,0,6.2,6.2,54,0.00,,,0.16,WUHU216HW,2013-02-01 03:22:00,
2013-01-31 22:23:00,52.8,36.6,30.38,North,6,4.3,6.2,54,0.00,,,0.16,WUHU216HW,2013-02-01 03:23:00,
2013-01-31 22:24:00,52.8,36.6,30.38,NNE,23,4.2,6.2,54,0.00,,,0.16,WUHU216HW,2013-02-01 03:24:00,
2013-01-31 22:26:00,52.7,36.4,30.38,North,0,0.2,6.2,54,0.00,,,0.16,WUHU216HW,2013-02-01 03:26:00,
2013-01-31 22:28:00,52.7,36.4,30.38,NNE,23,1.7,6.2,54,0.00,,,0.16,WUHU216HW,2013-02-01 03:28:00,
2013-01-31 22:29:00,52.7,36.4,30.38,NE,45,2.0,6.2,54,0.00,,,0.16,WUHU216HW,2013-02-01 03:29:00,
2013-01-31 22:33:00,52.5,36.2,30.38,NNE,23,9.3,9.3,54,0.00,,,0.16,WUHU216HW,2013-02-01 03:33:00,
2013-01-31 22:34:00,52.5,36.2,30.38,NNE,23,6.7,9.3,54,0.00,,,0.16,WUHU216HW,2013-02-01 03:34:00,
2013-01-31 22:35:00,52.5,36.2,30.38,NNW,338,7.8,9.3,54,0.00,,,0.16,WUHU216HW,2013-02-01 03:35:00,
2013-01-31 22:38:00,52.3,36.1,30.38,NNE,23,2.2,9.3,54,0.00,,,0.16,WUHU216HW,2013-02-01 03:38:00,
2013-01-31 22:39:00,52.3,36.1,30.38,NNE,23,0.2,9.3,54,0.00,,,0.16,WUHU216HW,2013-02-01 03:39:00,
2013-01-31 22:40:00,52.3,36.1,30.38,NNE,23,0.2,9.3,54,0.00,,,0.16,WUHU216HW,2013-02-01 03:40:00,
2013-01-31 22:44:00,52.3,36.1,30.38,NNE,23,4.0,7.3,54,0.00,,,0.16,WUHU216HW,2013-02-01 03:44:00,
2013-01-31 22:45:00,52.3,36.1,30.38,NNE,23,3.1,7.3,54,0.00,,,0.16,WUHU216HW,2013-02-01 03:45:00,
2013-01-31 22:46:00,52.3,36.1,30.38,North,0,3.5,5.3,54,0.00,,,0.16,WUHU216HW,2013-02-01 03:46:00,
2013-01-31 22:49:00,52.1,35.9,30.38,NE,45,3.1,5.3,54,0.00,,,0.16,WUHU216HW,2013-02-01 03:49:00,
2013-01-31 22:51:00,52.3,36.1,30.38,NE,45,2.9,4.0,54,0.00,,,0.16,WUHU216HW,2013-02-01 03:51:00,
2013-01-31 22:55:00,52.1,35.9,30.39,NNE,23,3.8,3.8,54,0.00,,,0.16,WUHU216HW,2013-02-01 03:55:00,
2013-01-31 22:56:00,51.9,36.2,30.38,NNE,23,3.5,3.8,55,0.00,,,0.16,WUHU216HW,2013-02-01 03:56:00,
2013-01-31 22:57:00,51.9,36.2,30.38,NNE,23,3.5,3.8,55,0.00,,,0.16,WUHU216HW,2013-02-01 03:57:00,
2013-01-31 23:00:00,51.9,36.2,30.39,NNE,16,1.5,3.8,55,0.00,,,0.16,WUHU216HW,2013-02-01 04:00:00,
2013-01-31 23:01:00,51.8,36.2,30.39,NNE,23,1.5,3.8,55,0.00,,,0.16,WUHU216HW,2013-02-01 04:01:00,
2013-01-31 23:02:00,51.8,36.2,30.39,NNE,23,1.5,3.8,55,0.00,,,0.16,WUHU216HW,2013-02-01 04:02:00,
2013-01-31 23:06:00,51.6,35.8,30.39,North,6,1.2,4.4,55,0.00,,,0.16,WUHU216HW,2013-02-01 04:06:00,
2013-01-31 23:07:00,51.6,35.8,30.39,North,6,1.2,4.4,55,0.00,,,0.16,WUHU216HW,2013-02-01 04:07:00,
2013-01-31 23:11:00,51.6,35.8,30.38,NNE,23,2.2,4.4,55,0.00,,,0.16,WUHU216HW,2013-02-01 04:11:00,
2013-01-31 23:12:00,51.6,35.8,30.38,NNE,23,2.2,4.4,55,0.00,,,0.16,WUHU216HW,2013-02-01 04:12:00,
2013-01-31 23:13:00,51.6,35.8,30.38,NNE,23,2.2,4.4,55,0.00,,,0.16,WUHU216HW,2013-02-01 04:13:00,
2013-01-31 23:14:00,51.6,35.8,30.38,NNE,23,0.0,2.2,55,0.00,,,0.16,WUHU216HW,2013-02-01 04:14:00,
2013-01-31 23:16:00,51.4,35.7,30.38,NNE,23,4.0,4.0,55,0.00,,,0.16,WUHU216HW,2013-02-01 04:16:00,
2013-01-31 23:17:00,51.4,35.7,30.38,NNE,20,2.2,4.0,55,0.00,,,0.16,WUHU216HW,2013-02-01 04:17:00,
2013-01-31 23:18:00,51.4,35.7,30.38,North,0,0.4,4.0,55,0.00,,,0.16,WUHU216HW,2013-02-01 04:18:00,
2013-01-31 23:19:00,51.4,35.7,30.38,NNE,23,0.0,4.0,55,0.00,,,0.16,WUHU216HW,2013-02-01 04:19:00,
2013-01-31 23:22:00,51.4,35.7,30.38,North,0,2.9,4.0,55,0.00,,,0.16,WUHU216HW,2013-02-01 04:22:00,
2013-01-31 23:23:00,51.2,36.0,30.38,NNE,23,3.1,4.0,56,0.00,,,0.16,WUHU216HW,2013-02-01 04:23:00,
2013-01-31 23:25:00,51.2,36.0,30.38,NNE,30,2.3,4.0,56,0.00,,,0.16,WUHU216HW,2013-02-01 04:25:00,
2013-01-31 23:28:00,51.0,35.8,30.37,NE,45,2.4,3.1,56,0.00,,,0.16,WUHU216HW,2013-02-01 04:28:00,
2013-01-31 23:29:00,51.0,35.8,30.37,NE,45,2.4,3.1,56,0.00,,,0.16,WUHU216HW,2013-02-01 04:29:00,
2013-01-31 23:30:00,51.0,35.8,30.38,NE,45,0.0,3.1,56,0.00,,,0.16,WUHU216HW,2013-02-01 04:30:00,
2013-01-31 23:34:00,51.0,35.8,30.38,NE,45,1.1,2.4,56,0.00,,,0.16,WUHU216HW,2013-02-01 04:34:00,
2013-01-31 23:35:00,51.0,35.8,30.38,NNE,23,4.9,4.9,56,0.00,,,0.16,WUHU216HW,2013-02-01 04:35:00,
2013-01-31 23:40:00,50.9,35.6,30.38,NNE,23,0.0,4.9,56,0.00,,,0.16,WUHU216HW,2013-02-01 04:40:00,
2013-01-31 23:41:00,50.7,35.5,30.38,NNE,23,2.2,4.9,56,0.00,,,0.16,WUHU216HW,2013-02-01 04:41:00,
2013-01-31 23:45:00,50.7,35.9,30.38,NNE,23,0.0,2.2,57,0.00,,,0.16,WUHU216HW,2013-02-01 04:45:00,
2013-01-31 23:46:00,50.7,35.9,30.39,NNE,23,0.0,2.2,57,0.00,,,0.16,WUHU216HW,2013-02-01 04:46:00,
2013-01-31 23:47:00,50.5,35.8,30.38,NNE,23,0.0,2.2,57,0.00,,,0.16,WUHU216HW,2013-02-01 04:47:00,
2013-01-31 23:50:00,50.5,35.8,30.38,NNE,23,0.6,2.2,57,0.00,,,0.16,WUHU216HW,2013-02-01 04:50:00,
2013-01-31 23:51:00,50.5,35.8,30.38,NNE,23,1.7,1.7,57,0.00,,,0.16,WUHU216HW,2013-02-01 04:51:00,
2013-01-31 23:53:00,50.5,35.8,30.38,NNE,23,1.7,1.7,57,0.00,,,0.16,WUHU216HW,2013-02-01 04:53:00,
2013-01-31 23:55:00,50.3,35.6,30.39,NNE,23,0.0,1.7,57,0.00,,,0.16,WUHU216HW,2013-02-01 04:55:00,
2013-01-31 23:56:00,50.3,35.6,30.39,NNE,23,0.0,1.7,57,0.00,,,0.16,WUHU216HW,2013-02-01 04:56:00,
2013-01-31 23:57:00,50.3,35.6,30.39,NNE,23,0.0,1.7,57,0.00,,,0.16,WUHU216HW,2013-02-01 04:57:00,
2013-01-31 23:59:00,50.1,35.9,30.39,NNE,23,2.9,2.9,58,0.00,,,0.16,WUHU216HW,2013-02-01 04:59:00,